Time,TemperatureF,DewpointF,PressureIn,WindDirection,WindDirectionDegrees,WindSpeedMPH,WindSpeedGustMPH,Humidity,HourlyPrecipIn,Conditions,Clouds,dailyrainin,SoftwareType,DateUTC
2013-05-11 00:01:00,44.1,26.2,30.31,North,11,5.0,8.0,49,0.00,,---,0.00,VWS V14.01,2013-05-11 05:01:00,
2013-05-11 00:02:00,44.0,26.1,30.31,NNE,13,4.0,8.0,49,0.00,,---,0.00,VWS V14.01,2013-05-11 05:02:00,
2013-05-11 00:06:00,43.5,26.1,30.31,NNE,24,8.0,8.0,50,0.00,,---,0.00,VWS V14.01,2013-05-11 05:06:00,
2013-05-11 00:07:00,43.4,26.0,30.31,NNE,26,3.0,8.0,50,0.00,,---,0.00,VWS V14.01,2013-05-11 05:07:00,
2013-05-11 00:11:00,43.2,26.3,30.31,North,5,5.0,8.0,51,0.00,,---,0.00,VWS V14.01,2013-05-11 05:11:00,
2013-05-11 00:12:00,43.1,26.2,30.31,NNE,24,8.0,9.0,51,0.00,,---,0.00,VWS V14.01,2013-05-11 05:12:00,
2013-05-11 00:16:00,42.9,26.0,30.32,North,5,4.0,9.0,51,0.00,,---,0.00,VWS V14.01,2013-05-11 05:16:00,
2013-05-11 00:17:00,42.9,26.0,30.32,North,11,5.0,9.0,51,0.00,,---,0.00,VWS V14.01,2013-05-11 05:17:00,
2013-05-11 00:21:00,42.7,25.9,30.32,NNE,14,4.0,9.0,51,0.00,,---,0.00,VWS V14.01,2013-05-11 05:21:00,
2013-05-11 00:22:00,42.7,25.9,30.32,North,5,4.0,9.0,51,0.00,,---,0.00,VWS V14.01,2013-05-11 05:22:00,
2013-05-11 00:26:00,42.4,26.0,30.32,NNE,13,6.0,11.0,52,0.00,,---,0.00,VWS V14.01,2013-05-11 05:26:00,
2013-05-11 00:27:00,42.4,26.0,30.32,NNE,16,7.0,11.0,52,0.00,,---,0.00,VWS V14.01,2013-05-11 05:27:00,
2013-05-11 00:31:00,42.2,25.9,30.32,North,360,8.0,11.0,52,0.00,,---,0.00,VWS V14.01,2013-05-11 05:31:00,
2013-05-11 00:32:00,42.2,25.9,30.32,North,5,5.0,11.0,52,0.00,,---,0.00,VWS V14.01,2013-05-11 05:32:00,
2013-05-11 00:36:00,42.1,25.8,30.32,NNW,346,8.0,11.0,52,0.00,,---,0.00,VWS V14.01,2013-05-11 05:36:00,
2013-05-11 00:37:00,42.1,25.8,30.32,North,11,6.0,11.0,52,0.00,,---,0.00,VWS V14.01,2013-05-11 05:37:00,
2013-05-11 00:42:00,41.9,26.0,30.33,NNW,334,7.0,8.0,53,0.00,,---,0.00,VWS V14.01,2013-05-11 05:42:00,
2013-05-11 00:47:00,41.8,25.9,30.33,North,360,4.0,9.0,53,0.00,,---,0.00,VWS V14.01,2013-05-11 05:47:00,
2013-05-11 00:52:00,41.8,25.9,30.33,North,349,4.0,9.0,53,0.00,,---,0.00,VWS V14.01,2013-05-11 05:52:00,
2013-05-11 00:57:00,41.8,25.9,30.33,NNE,15,6.0,9.0,53,0.00,,---,0.00,VWS V14.01,2013-05-11 05:57:00,
2013-05-11 01:02:00,41.7,25.9,30.33,North,5,7.0,9.0,53,0.00,,---,0.00,VWS V14.01,2013-05-11 06:02:00,
2013-05-11 01:07:00,41.6,25.8,30.33,NNE,12,9.0,9.0,53,0.00,,---,0.00,VWS V14.01,2013-05-11 06:07:00,
2013-05-11 01:08:00,41.6,25.8,30.33,North,5,5.0,7.0,53,0.00,,---,0.00,VWS V14.01,2013-05-11 06:08:00,
2013-05-11 01:12:00,41.5,25.2,30.34,North,360,3.0,9.0,52,0.00,,---,0.00,VWS V14.01,2013-05-11 06:12:00,
2013-05-11 01:13:00,41.5,25.2,30.34,North,5,6.0,9.0,52,0.00,,---,0.00,VWS V14.01,2013-05-11 06:13:00,
2013-05-11 01:17:00,41.4,25.1,30.34,North,355,8.0,11.0,52,0.00,,---,0.00,VWS V14.01,2013-05-11 06:17:00,
2013-05-11 01:18:00,41.5,25.2,30.34,NNE,15,7.0,11.0,52,0.00,,---,0.00,VWS V14.01,2013-05-11 06:18:00,
2013-05-11 01:22:00,41.4,25.1,30.34,NE,34,7.0,11.0,52,0.00,,---,0.00,VWS V14.01,2013-05-11 06:22:00,
2013-05-11 01:23:00,41.4,25.1,30.34,North,5,5.0,5.0,52,0.00,,---,0.00,VWS V14.01,2013-05-11 06:23:00,
2013-05-11 01:27:00,41.3,25.0,30.35,NNE,28,4.0,8.0,52,0.00,,---,0.00,VWS V14.01,2013-05-11 06:27:00,
2013-05-11 01:28:00,41.2,24.9,30.35,North,355,5.0,9.0,52,0.00,,---,0.00,VWS V14.01,2013-05-11 06:28:00,
2013-05-11 01:32:00,41.1,24.8,30.35,NNE,13,4.0,9.0,52,0.00,,---,0.00,VWS V14.01,2013-05-11 06:32:00,
2013-05-11 01:33:00,41.0,24.7,30.35,North,355,3.0,9.0,52,0.00,,---,0.00,VWS V14.01,2013-05-11 06:33:00,
2013-05-11 01:37:00,40.9,25.1,30.35,North,5,4.0,10.0,53,0.00,,---,0.00,VWS V14.01,2013-05-11 06:37:00,
2013-05-11 01:38:00,40.8,25.0,30.35,North,5,2.0,4.0,53,0.00,,---,0.00,VWS V14.01,2013-05-11 06:38:00,
2013-05-11 01:42:00,40.7,24.9,30.35,North,10,4.0,8.0,53,0.00,,---,0.00,VWS V14.01,2013-05-11 06:42:00,
2013-05-11 01:43:00,40.6,24.8,30.36,NNE,14,4.0,8.0,53,0.00,,---,0.00,VWS V14.01,2013-05-11 06:43:00,
2013-05-11 01:47:00,40.5,24.7,30.36,North,9,4.0,8.0,53,0.00,,---,0.00,VWS V14.01,2013-05-11 06:47:00,
2013-05-11 01:48:00,40.4,24.6,30.36,North,10,5.0,8.0,53,0.00,,---,0.00,VWS V14.01,2013-05-11 06:48:00,
2013-05-11 01:52:00,40.3,24.5,30.36,North,5,2.0,3.0,53,0.00,,---,0.00,VWS V14.01,2013-05-11 06:52:00,
2013-05-11 01:53:00,40.3,24.5,30.36,North,5,3.0,3.0,53,0.00,,---,0.00,VWS V14.01,2013-05-11 06:53:00,
2013-05-11 01:57:00,40.1,24.8,30.36,North,11,1.0,7.0,54,0.00,,---,0.00,VWS V14.01,2013-05-11 06:57:00,
2013-05-11 01:58:00,40.1,24.8,30.36,North,11,3.0,7.0,54,0.00,,---,0.00,VWS V14.01,2013-05-11 06:58:00,
2013-05-11 02:02:00,39.9,24.6,30.36,NNE,14,5.0,7.0,54,0.00,,---,0.00,VWS V14.01,2013-05-11 07:02:00,
2013-05-11 02:03:00,39.9,24.6,30.36,North,11,5.0,7.0,54,0.00,,---,0.00,VWS V14.01,2013-05-11 07:03:00,
2013-05-11 02:07:00,39.8,24.5,30.36,NE,40,5.0,5.0,54,0.00,,---,0.00,VWS V14.01,2013-05-11 07:07:00,
2013-05-11 02:08:00,39.8,24.5,30.36,NNE,22,6.0,6.0,54,0.00,,---,0.00,VWS V14.01,2013-05-11 07:08:00,
2013-05-11 02:12:00,39.8,24.5,30.36,North,5,6.0,6.0,54,0.00,,---,0.00,VWS V14.01,2013-05-11 07:12:00,
2013-05-11 02:13:00,39.8,24.5,30.36,North,5,3.0,6.0,54,0.00,,---,0.00,VWS V14.01,2013-05-11 07:13:00,
2013-05-11 02:14:00,39.8,25.0,30.37,North,11,2.0,6.0,55,0.00,,---,0.00,VWS V14.01,2013-05-11 07:14:00,
2013-05-11 02:17:00,39.7,24.9,30.37,North,355,5.0,6.0,55,0.00,,---,0.00,VWS V14.01,2013-05-11 07:17:00,
2013-05-11 02:18:00,39.6,24.8,30.37,North,5,4.0,6.0,55,0.00,,---,0.00,VWS V14.01,2013-05-11 07:18:00,
2013-05-11 02:19:00,39.6,24.8,30.37,North,5,2.0,6.0,55,0.00,,---,0.00,VWS V14.01,2013-05-11 07:19:00,
2013-05-11 02:22:00,39.4,24.6,30.37,North,10,3.0,3.0,55,0.00,,---,0.00,VWS V14.01,2013-05-11 07:22:00,
2013-05-11 02:23:00,39.4,24.6,30.37,North,10,1.0,4.0,55,0.00,,---,0.00,VWS V14.01,2013-05-11 07:23:00,
2013-05-11 02:24:00,39.3,24.5,30.37,North,10,2.0,4.0,55,0.00,,---,0.00,VWS V14.01,2013-05-11 07:24:00,
2013-05-11 02:27:00,39.1,24.3,30.37,NNE,13,3.0,5.0,55,0.00,,---,0.00,VWS V14.01,2013-05-11 07:27:00,
2013-05-11 02:28:00,39.1,24.3,30.37,NNE,13,4.0,5.0,55,0.00,,---,0.00,VWS V14.01,2013-05-11 07:28:00,
2013-05-11 02:29:00,39.0,24.2,30.37,NNE,13,2.0,5.0,55,0.00,,---,0.00,VWS V14.01,2013-05-11 07:29:00,
2013-05-11 02:32:00,38.8,24.0,30.37,NNE,13,3.0,5.0,55,0.00,,---,0.00,VWS V14.01,2013-05-11 07:32:00,
2013-05-11 02:33:00,38.7,23.9,30.37,NNE,13,3.0,5.0,55,0.00,,---,0.00,VWS V14.01,2013-05-11 07:33:00,
2013-05-11 02:34:00,38.7,23.9,30.37,NNE,17,3.0,5.0,55,0.00,,---,0.00,VWS V14.01,2013-05-11 07:34:00,
2013-05-11 02:37:00,38.5,23.8,30.37,North,11,4.0,6.0,55,0.00,,---,0.00,VWS V14.01,2013-05-11 07:37:00,
2013-05-11 02:38:00,38.6,23.8,30.37,NNE,13,5.0,6.0,55,0.00,,---,0.00,VWS V14.01,2013-05-11 07:38:00,
2013-05-11 02:39:00,38.6,23.8,30.37,NNE,27,6.0,8.0,55,0.00,,---,0.00,VWS V14.01,2013-05-11 07:39:00,
2013-05-11 02:43:00,38.6,23.8,30.37,NNE,13,6.0,8.0,55,0.00,,---,0.00,VWS V14.01,2013-05-11 07:43:00,
2013-05-11 02:44:00,38.6,23.8,30.37,NNE,17,5.0,8.0,55,0.00,,---,0.00,VWS V14.01,2013-05-11 07:44:00,
2013-05-11 02:48:00,38.8,23.6,30.38,NNE,13,3.0,8.0,54,0.00,,---,0.00,VWS V14.01,2013-05-11 07:48:00,
2013-05-11 02:49:00,38.9,23.7,30.38,NE,34,9.0,9.0,54,0.00,,---,0.00,VWS V14.01,2013-05-11 07:49:00,
2013-05-11 02:53:00,39.1,23.9,30.38,NNE,26,2.0,7.0,54,0.00,,---,0.00,VWS V14.01,2013-05-11 07:53:00,
2013-05-11 02:54:00,39.2,23.5,30.38,NNE,26,3.0,7.0,53,0.00,,---,0.00,VWS V14.01,2013-05-11 07:54:00,
2013-05-11 02:58:00,39.2,24.0,30.38,NE,55,4.0,8.0,54,0.00,,---,0.00,VWS V14.01,2013-05-11 07:58:00,
2013-05-11 02:59:00,39.1,23.9,30.38,NE,43,6.0,8.0,54,0.00,,---,0.00,VWS V14.01,2013-05-11 07:59:00,
2013-05-11 03:00:00,39.2,24.0,30.38,NNE,22,5.0,8.0,54,0.00,,---,0.00,VWS V14.01,2013-05-11 08:00:00,
2013-05-11 03:03:00,39.0,23.8,30.38,NE,43,5.0,10.0,54,0.00,,---,0.00,VWS V14.01,2013-05-11 08:03:00,
2013-05-11 03:04:00,39.0,23.8,30.38,North,5,5.0,10.0,54,0.00,,---,0.00,VWS V14.01,2013-05-11 08:04:00,
2013-05-11 03:05:00,39.0,23.8,30.38,North,5,3.0,10.0,54,0.00,,---,0.00,VWS V14.01,2013-05-11 08:05:00,
2013-05-11 03:08:00,38.8,24.0,30.38,ENE,57,3.0,5.0,55,0.00,,---,0.00,VWS V14.01,2013-05-11 08:08:00,
2013-05-11 03:09:00,38.8,24.0,30.38,NNE,30,5.0,5.0,55,0.00,,---,0.00,VWS V14.01,2013-05-11 08:09:00,
2013-05-11 03:10:00,38.7,23.9,30.38,NNE,15,1.0,8.0,55,0.00,,---,0.00,VWS V14.01,2013-05-11 08:10:00,
2013-05-11 03:13:00,38.5,24.2,30.39,NE,38,1.0,8.0,56,0.00,,---,0.00,VWS V14.01,2013-05-11 08:13:00,
2013-05-11 03:14:00,38.5,24.2,30.39,NE,38,3.0,8.0,56,0.00,,---,0.00,VWS V14.01,2013-05-11 08:14:00,
2013-05-11 03:15:00,38.3,24.0,30.39,NE,40,5.0,8.0,56,0.00,,---,0.00,VWS V14.01,2013-05-11 08:15:00,
2013-05-11 03:19:00,38.1,24.2,30.39,NE,40,3.0,8.0,57,0.00,,---,0.00,VWS V14.01,2013-05-11 08:19:00,
2013-05-11 03:20:00,38.0,24.1,30.39,NE,40,5.0,8.0,57,0.00,,---,0.00,VWS V14.01,2013-05-11 08:20:00,
2013-05-11 03:24:00,37.8,24.4,30.39,NE,40,7.0,7.0,58,0.00,,---,0.00,VWS V14.01,2013-05-11 08:24:00,
2013-05-11 03:25:00,37.6,24.2,30.39,NE,40,3.0,7.0,58,0.00,,---,0.00,VWS V14.01,2013-05-11 08:25:00,
2013-05-11 03:29:00,37.4,24.4,30.39,NE,40,2.0,7.0,59,0.00,,---,0.00,VWS V14.01,2013-05-11 08:29:00,
2013-05-11 03:30:00,37.3,24.3,30.39,NE,40,3.0,7.0,59,0.00,,---,0.00,VWS V14.01,2013-05-11 08:30:00,
2013-05-11 03:34:00,37.1,24.5,30.39,NE,40,3.0,7.0,60,0.00,,---,0.00,VWS V14.01,2013-05-11 08:34:00,
2013-05-11 03:35:00,37.0,24.4,30.39,NE,40,4.0,7.0,60,0.00,,---,0.00,VWS V14.01,2013-05-11 08:35:00,
2013-05-11 03:39:00,36.8,24.2,30.40,NE,48,6.0,9.0,60,0.00,,---,0.00,VWS V14.01,2013-05-11 08:39:00,
2013-05-11 03:40:00,36.7,24.5,30.40,NE,38,2.0,9.0,61,0.00,,---,0.00,VWS V14.01,2013-05-11 08:40:00,
2013-05-11 03:44:00,36.5,24.3,30.40,ENE,66,3.0,9.0,61,0.00,,---,0.00,VWS V14.01,2013-05-11 08:44:00,
2013-05-11 03:45:00,36.4,24.2,30.40,ENE,66,4.0,9.0,61,0.00,,---,0.00,VWS V14.01,2013-05-11 08:45:00,
2013-05-11 03:49:00,36.3,24.5,30.40,East,82,5.0,9.0,62,0.00,,---,0.00,VWS V14.01,2013-05-11 08:49:00,
2013-05-11 03:50:00,36.3,24.5,30.40,ENE,61,3.0,9.0,62,0.00,,---,0.00,VWS V14.01,2013-05-11 08:50:00,
2013-05-11 03:54:00,36.1,24.4,30.40,NE,44,8.0,8.0,62,0.00,,---,0.00,VWS V14.01,2013-05-11 08:54:00,
2013-05-11 03:55:00,36.1,24.4,30.40,NE,38,7.0,8.0,62,0.00,,---,0.00,VWS V14.01,2013-05-11 08:55:00,
2013-05-11 03:56:00,36.1,24.4,30.40,North,9,5.0,8.0,62,0.00,,---,0.00,VWS V14.01,2013-05-11 08:56:00,
2013-05-11 03:59:00,36.0,24.3,30.40,NE,46,7.0,8.0,62,0.00,,---,0.00,VWS V14.01,2013-05-11 08:59:00,
2013-05-11 04:00:00,35.9,24.2,30.40,NE,39,2.0,8.0,62,0.00,,---,0.00,VWS V14.01,2013-05-11 09:00:00,
2013-05-11 04:01:00,35.9,24.2,30.40,NE,43,1.0,8.0,62,0.00,,---,0.00,VWS V14.01,2013-05-11 09:01:00,
2013-05-11 04:04:00,35.7,24.4,30.40,North,9,3.0,8.0,63,0.00,,---,0.00,VWS V14.01,2013-05-11 09:04:00,
2013-05-11 04:05:00,35.7,24.4,30.40,NNE,12,2.0,8.0,63,0.00,,---,0.00,VWS V14.01,2013-05-11 09:05:00,
2013-05-11 04:06:00,35.7,24.4,30.40,NNE,13,5.0,8.0,63,0.00,,---,0.00,VWS V14.01,2013-05-11 09:06:00,
2013-05-11 04:09:00,35.6,24.3,30.40,NE,36,0.0,5.0,63,0.00,,---,0.00,VWS V14.01,2013-05-11 09:09:00,
2013-05-11 04:10:00,35.6,24.3,30.41,NE,36,0.0,5.0,63,0.00,,---,0.00,VWS V14.01,2013-05-11 09:10:00,
2013-05-11 04:11:00,35.5,24.2,30.40,NE,36,0.0,5.0,63,0.00,,---,0.00,VWS V14.01,2013-05-11 09:11:00,
2013-05-11 04:14:00,35.4,24.1,30.41,NE,36,0.0,5.0,63,0.00,,---,0.00,VWS V14.01,2013-05-11 09:14:00,
2013-05-11 04:15:00,35.4,24.1,30.41,NE,36,2.0,5.0,63,0.00,,---,0.00,VWS V14.01,2013-05-11 09:15:00,
2013-05-11 04:16:00,35.4,24.1,30.40,NE,36,0.0,5.0,63,0.00,,---,0.00,VWS V14.01,2013-05-11 09:16:00,
2013-05-11 04:19:00,35.2,24.3,30.41,NE,36,0.0,5.0,64,0.00,,---,0.00,VWS V14.01,2013-05-11 09:19:00,
2013-05-11 04:20:00,35.2,24.3,30.40,NNE,28,4.0,6.0,64,0.00,,---,0.00,VWS V14.01,2013-05-11 09:20:00,
2013-05-11 04:21:00,35.2,24.3,30.40,NNE,26,2.0,6.0,64,0.00,,---,0.00,VWS V14.01,2013-05-11 09:21:00,
2013-05-11 04:24:00,35.0,24.1,30.41,NNE,33,1.0,4.0,64,0.00,,---,0.00,VWS V14.01,2013-05-11 09:24:00,
2013-05-11 04:25:00,35.0,24.1,30.41,NNE,33,0.0,4.0,64,0.00,,---,0.00,VWS V14.01,2013-05-11 09:25:00,
2013-05-11 04:26:00,34.9,24.0,30.41,NNE,33,3.0,4.0,64,0.00,,---,0.00,VWS V14.01,2013-05-11 09:26:00,
2013-05-11 04:29:00,34.7,24.1,30.41,NNE,33,0.0,4.0,65,0.00,,---,0.00,VWS V14.01,2013-05-11 09:29:00,
2013-05-11 04:30:00,34.7,24.1,30.41,NNE,33,1.0,4.0,65,0.00,,---,0.00,VWS V14.01,2013-05-11 09:30:00,
2013-05-11 04:31:00,34.7,24.1,30.41,NNE,33,0.0,4.0,65,0.00,,---,0.00,VWS V14.01,2013-05-11 09:31:00,
2013-05-11 04:34:00,34.5,24.0,30.41,NNE,33,2.0,4.0,65,0.00,,---,0.00,VWS V14.01,2013-05-11 09:34:00,
2013-05-11 04:35:00,34.5,24.0,30.41,NNE,33,2.0,4.0,65,0.00,,---,0.00,VWS V14.01,2013-05-11 09:35:00,
2013-05-11 04:36:00,34.4,24.2,30.41,NNE,33,2.0,4.0,66,0.00,,---,0.00,VWS V14.01,2013-05-11 09:36:00,
2013-05-11 04:39:00,34.3,24.1,30.41,NNE,33,2.0,3.0,66,0.00,,---,0.00,VWS V14.01,2013-05-11 09:39:00,
2013-05-11 04:40:00,34.3,24.1,30.41,NNE,33,2.0,3.0,66,0.00,,---,0.00,VWS V14.01,2013-05-11 09:40:00,
2013-05-11 04:41:00,34.3,24.1,30.41,NNE,33,0.0,3.0,66,0.00,,---,0.00,VWS V14.01,2013-05-11 09:41:00,
2013-05-11 04:44:00,34.1,24.0,30.41,NNE,33,1.0,5.0,66,0.00,,---,0.00,VWS V14.01,2013-05-11 09:44:00,
2013-05-11 04:45:00,34.1,24.3,30.41,NNE,33,1.0,5.0,67,0.00,,---,0.00,VWS V14.01,2013-05-11 09:45:00,
2013-05-11 04:46:00,34.0,24.2,30.41,NNE,33,2.0,5.0,67,0.00,,---,0.00,VWS V14.01,2013-05-11 09:46:00,
2013-05-11 04:47:00,34.0,23.9,30.41,NNE,33,3.0,5.0,66,0.00,,---,0.00,VWS V14.01,2013-05-11 09:47:00,
2013-05-11 04:50:00,33.9,24.1,30.41,NNE,33,2.0,5.0,67,0.00,,---,0.00,VWS V14.01,2013-05-11 09:50:00,
2013-05-11 04:51:00,33.8,24.0,30.41,NNE,33,1.0,5.0,67,0.00,,---,0.00,VWS V14.01,2013-05-11 09:51:00,
2013-05-11 04:52:00,33.8,24.0,30.41,NNE,33,2.0,5.0,67,0.00,,---,0.00,VWS V14.01,2013-05-11 09:52:00,
2013-05-11 04:55:00,33.6,23.8,30.41,NNE,17,1.0,5.0,67,0.00,,---,0.00,VWS V14.01,2013-05-11 09:55:00,
2013-05-11 04:56:00,33.6,23.8,30.41,NNE,17,3.0,5.0,67,0.00,,---,0.00,VWS V14.01,2013-05-11 09:56:00,
2013-05-11 04:57:00,33.5,23.7,30.41,NNE,17,3.0,5.0,67,0.00,,---,0.00,VWS V14.01,2013-05-11 09:57:00,
2013-05-11 05:00:00,33.4,24.0,30.41,NNE,17,2.0,5.0,68,0.00,,---,0.00,VWS V14.01,2013-05-11 10:00:00,
2013-05-11 05:01:00,33.4,24.0,30.41,NNE,17,2.0,5.0,68,0.00,,---,0.00,VWS V14.01,2013-05-11 10:01:00,
2013-05-11 05:02:00,33.4,24.0,30.41,NNE,17,1.0,5.0,68,0.00,,---,0.00,VWS V14.01,2013-05-11 10:02:00,
2013-05-11 05:05:00,33.3,23.9,30.41,NNE,17,2.0,5.0,68,0.00,,---,0.00,VWS V14.01,2013-05-11 10:05:00,
2013-05-11 05:06:00,33.3,23.9,30.41,NNE,17,0.0,5.0,68,0.00,,---,0.00,VWS V14.01,2013-05-11 10:06:00,
2013-05-11 05:07:00,33.2,23.8,30.41,NNE,17,0.0,5.0,68,0.00,,---,0.00,VWS V14.01,2013-05-11 10:07:00,
2013-05-11 05:10:00,33.1,23.7,30.41,NNE,17,0.0,1.0,68,0.00,,---,0.00,VWS V14.01,2013-05-11 10:10:00,
2013-05-11 05:11:00,33.1,23.7,30.41,NNE,17,0.0,1.0,68,0.00,,---,0.00,VWS V14.01,2013-05-11 10:11:00,
2013-05-11 05:12:00,33.0,24.0,30.41,NNE,17,0.0,1.0,69,0.00,,---,0.00,VWS V14.01,2013-05-11 10:12:00,
2013-05-11 05:15:00,32.9,23.9,30.41,NNE,17,0.0,1.0,69,0.00,,---,0.00,VWS V14.01,2013-05-11 10:15:00,
2013-05-11 05:16:00,32.8,23.8,30.41,NNE,17,0.0,1.0,69,0.00,,---,0.00,VWS V14.01,2013-05-11 10:16:00,
2013-05-11 05:17:00,32.8,23.8,30.41,NNE,17,0.0,1.0,69,0.00,,---,0.00,VWS V14.01,2013-05-11 10:17:00,
2013-05-11 05:20:00,32.6,23.6,30.41,NNE,17,0.0,1.0,69,0.00,,---,0.00,VWS V14.01,2013-05-11 10:20:00,
2013-05-11 05:21:00,32.6,23.9,30.41,NNE,17,0.0,1.0,70,0.00,,---,0.00,VWS V14.01,2013-05-11 10:21:00,
2013-05-11 05:22:00,32.5,23.8,30.42,NNE,17,0.0,0.0,70,0.00,,---,0.00,VWS V14.01,2013-05-11 10:22:00,
2013-05-11 05:25:00,32.4,23.7,30.42,NNE,17,0.0,0.0,70,0.00,,---,0.00,VWS V14.01,2013-05-11 10:25:00,
2013-05-11 05:26:00,32.4,23.7,30.42,NNE,17,0.0,0.0,70,0.00,,---,0.00,VWS V14.01,2013-05-11 10:26:00,
2013-05-11 05:27:00,32.4,23.7,30.42,NNE,17,0.0,0.0,70,0.00,,---,0.00,VWS V14.01,2013-05-11 10:27:00,
2013-05-11 05:31:00,32.2,23.5,30.42,NNE,17,1.0,2.0,70,0.00,,---,0.00,VWS V14.01,2013-05-11 10:31:00,
2013-05-11 05:32:00,32.1,23.8,30.41,NNE,17,0.0,2.0,71,0.00,,---,0.00,VWS V14.01,2013-05-11 10:32:00,
2013-05-11 05:36:00,32.0,23.7,30.42,NNE,17,0.0,2.0,71,0.00,,---,0.00,VWS V14.01,2013-05-11 10:36:00,
2013-05-11 05:38:00,31.9,23.6,30.42,NNE,17,0.0,0.0,71,0.00,,---,0.00,VWS V14.01,2013-05-11 10:38:00,
2013-05-11 05:41:00,31.8,23.8,30.42,NNE,17,0.0,0.0,72,0.00,,---,0.00,VWS V14.01,2013-05-11 10:41:00,
2013-05-11 05:43:00,31.7,23.7,30.42,NNE,17,0.0,0.0,72,0.00,,---,0.00,VWS V14.01,2013-05-11 10:43:00,
2013-05-11 05:46:00,31.7,23.7,30.42,NNE,17,0.0,0.0,72,0.00,,---,0.00,VWS V14.01,2013-05-11 10:46:00,
2013-05-11 05:48:00,31.7,23.7,30.42,NNE,17,0.0,0.0,72,0.00,,---,0.00,VWS V14.01,2013-05-11 10:48:00,
2013-05-11 05:51:00,31.6,23.6,30.42,NNE,17,0.0,0.0,72,0.00,,---,0.00,VWS V14.01,2013-05-11 10:51:00,
2013-05-11 05:53:00,31.6,23.6,30.42,NNE,17,2.0,2.0,72,0.00,,---,0.00,VWS V14.01,2013-05-11 10:53:00,
2013-05-11 05:56:00,31.4,23.8,30.42,NNE,17,2.0,2.0,73,0.00,,---,0.00,VWS V14.01,2013-05-11 10:56:00,
2013-05-11 05:58:00,31.3,23.7,30.42,NNE,17,0.0,2.0,73,0.00,,---,0.00,VWS V14.01,2013-05-11 10:58:00,
2013-05-11 06:01:00,31.3,23.7,30.42,NNE,17,0.0,2.0,73,0.00,,---,0.00,VWS V14.01,2013-05-11 11:01:00,
2013-05-11 06:03:00,31.2,23.6,30.42,NNE,17,0.0,2.0,73,0.00,,---,0.00,VWS V14.01,2013-05-11 11:03:00,
2013-05-11 06:06:00,31.2,23.6,30.42,NNE,17,0.0,2.0,73,0.00,,---,0.00,VWS V14.01,2013-05-11 11:06:00,
2013-05-11 06:08:00,31.1,23.5,30.42,NNE,17,0.0,0.0,73,0.00,,---,0.00,VWS V14.01,2013-05-11 11:08:00,
2013-05-11 06:11:00,31.1,23.5,30.42,NNE,17,0.0,0.0,73,0.00,,---,0.00,VWS V14.01,2013-05-11 11:11:00,
2013-05-11 06:13:00,31.0,23.4,30.43,NNE,17,0.0,2.0,73,0.00,,---,0.00,VWS V14.01,2013-05-11 11:13:00,
2013-05-11 06:16:00,30.8,23.2,30.43,NNE,17,0.0,2.0,73,0.00,,---,0.00,VWS V14.01,2013-05-11 11:16:00,
2013-05-11 06:18:00,30.7,23.1,30.43,NNE,17,0.0,2.0,73,0.00,,---,0.00,VWS V14.01,2013-05-11 11:18:00,
2013-05-11 06:21:00,30.6,23.0,30.42,NNE,17,0.0,2.0,73,0.00,,---,0.00,VWS V14.01,2013-05-11 11:21:00,
2013-05-11 06:23:00,30.4,22.8,30.42,NNE,17,0.0,0.0,73,0.00,,---,0.00,VWS V14.01,2013-05-11 11:23:00,
2013-05-11 06:26:00,30.3,23.0,30.43,NNE,17,0.0,0.0,74,0.00,,---,0.00,VWS V14.01,2013-05-11 11:26:00,
2013-05-11 06:28:00,30.2,22.9,30.43,NNE,17,0.0,0.0,74,0.00,,---,0.00,VWS V14.01,2013-05-11 11:28:00,
2013-05-11 06:31:00,30.2,22.9,30.43,NNE,17,0.0,1.0,74,0.00,,---,0.00,VWS V14.01,2013-05-11 11:31:00,
2013-05-11 06:33:00,30.1,22.8,30.43,NNE,17,0.0,2.0,74,0.00,,---,0.00,VWS V14.01,2013-05-11 11:33:00,
2013-05-11 06:36:00,29.9,22.6,30.43,NNE,17,0.0,2.0,74,0.00,,---,0.00,VWS V14.01,2013-05-11 11:36:00,
2013-05-11 06:38:00,29.9,22.6,30.43,NNE,17,0.0,0.0,74,0.00,,---,0.00,VWS V14.01,2013-05-11 11:38:00,
2013-05-11 06:41:00,29.7,22.4,30.43,NNE,17,0.0,1.0,74,0.00,,---,0.00,VWS V14.01,2013-05-11 11:41:00,
2013-05-11 06:43:00,29.6,22.4,30.43,NNE,17,0.0,1.0,74,0.00,,---,0.00,VWS V14.01,2013-05-11 11:43:00,
2013-05-11 06:46:00,29.4,22.1,30.43,NNE,17,1.0,1.0,74,0.00,,---,0.00,VWS V14.01,2013-05-11 11:46:00,
2013-05-11 06:48:00,29.3,22.1,30.43,NNE,17,1.0,1.0,74,0.00,,---,0.00,VWS V14.01,2013-05-11 11:48:00,
2013-05-11 06:51:00,29.2,22.0,30.44,NNE,17,0.0,2.0,74,0.00,,---,0.00,VWS V14.01,2013-05-11 11:51:00,
2013-05-11 06:53:00,29.1,21.9,30.44,NNE,17,2.0,3.0,74,0.00,,---,0.00,VWS V14.01,2013-05-11 11:53:00,
2013-05-11 06:56:00,28.9,21.7,30.44,NNE,17,1.0,3.0,74,0.00,,---,0.00,VWS V14.01,2013-05-11 11:56:00,
2013-05-11 06:57:00,28.9,21.7,30.44,NNE,17,1.0,3.0,74,0.00,,---,0.00,VWS V14.01,2013-05-11 11:57:00,
2013-05-11 06:59:00,28.9,22.0,30.44,NNE,17,2.0,3.0,75,0.00,,---,0.00,VWS V14.01,2013-05-11 11:59:00,
2013-05-11 07:01:00,28.8,21.9,30.44,NNE,17,1.0,3.0,75,0.00,,---,0.00,VWS V14.01,2013-05-11 12:01:00,
2013-05-11 07:02:00,28.8,21.9,30.44,NNE,17,2.0,3.0,75,0.00,,---,0.00,VWS V14.01,2013-05-11 12:02:00,
2013-05-11 07:04:00,28.8,21.9,30.44,NNE,17,1.0,3.0,75,0.00,,---,0.00,VWS V14.01,2013-05-11 12:04:00,
2013-05-11 07:06:00,28.7,21.8,30.44,NNE,17,2.0,3.0,75,0.00,,---,0.00,VWS V14.01,2013-05-11 12:06:00,
2013-05-11 07:07:00,28.7,21.8,30.44,NNE,17,1.0,3.0,75,0.00,,---,0.00,VWS V14.01,2013-05-11 12:07:00,
2013-05-11 07:09:00,28.7,21.8,30.44,NNE,17,0.0,2.0,75,0.00,,---,0.00,VWS V14.01,2013-05-11 12:09:00,
2013-05-11 07:12:00,28.7,21.8,30.44,NNE,17,0.0,2.0,75,0.00,,---,0.00,VWS V14.01,2013-05-11 12:12:00,
2013-05-11 07:14:00,28.8,21.9,30.44,NNE,17,0.0,2.0,75,0.00,,---,0.00,VWS V14.01,2013-05-11 12:14:00,
2013-05-11 07:17:00,28.9,22.0,30.44,NNE,17,3.0,3.0,75,0.00,,---,0.00,VWS V14.01,2013-05-11 12:17:00,
2013-05-11 07:19:00,29.0,22.1,30.45,NNE,17,2.0,3.0,75,0.00,,---,0.00,VWS V14.01,2013-05-11 12:19:00,
2013-05-11 07:22:00,29.4,22.5,30.45,NNE,17,0.0,3.0,75,0.00,,---,0.00,VWS V14.01,2013-05-11 12:22:00,
2013-05-11 07:24:00,29.6,22.7,30.45,NNE,17,0.0,0.0,75,0.00,,---,0.00,VWS V14.01,2013-05-11 12:24:00,
2013-05-11 07:27:00,29.9,22.6,30.45,NNE,17,1.0,1.0,74,0.00,,---,0.00,VWS V14.01,2013-05-11 12:27:00,
2013-05-11 07:29:00,30.3,23.0,30.45,NNE,17,0.0,1.0,74,0.00,,---,0.00,VWS V14.01,2013-05-11 12:29:00,
2013-05-11 07:32:00,30.7,23.1,30.45,NNE,17,0.0,1.0,73,0.00,,---,0.00,VWS V14.01,2013-05-11 12:32:00,
2013-05-11 07:34:00,31.0,23.4,30.44,NNE,17,2.0,2.0,73,0.00,,---,0.00,VWS V14.01,2013-05-11 12:34:00,
2013-05-11 07:37:00,31.3,23.3,30.44,NNE,17,2.0,2.0,72,0.00,,---,0.00,VWS V14.01,2013-05-11 12:37:00,
2013-05-11 07:39:00,31.6,23.3,30.44,NNE,17,2.0,3.0,71,0.00,,---,0.00,VWS V14.01,2013-05-11 12:39:00,
2013-05-11 07:42:00,31.9,23.6,30.44,NNW,329,2.0,4.0,71,0.00,,---,0.00,VWS V14.01,2013-05-11 12:42:00,
2013-05-11 07:44:00,32.1,23.8,30.44,NNW,329,2.0,4.0,71,0.00,,---,0.00,VWS V14.01,2013-05-11 12:44:00,
2013-05-11 07:47:00,32.3,24.0,30.44,NNW,329,0.0,4.0,71,0.00,,---,0.00,VWS V14.01,2013-05-11 12:47:00,
2013-05-11 07:49:00,32.5,23.8,30.45,NNW,329,1.0,4.0,70,0.00,,---,0.00,VWS V14.01,2013-05-11 12:49:00,
2013-05-11 07:52:00,32.8,24.1,30.45,NNW,329,1.0,4.0,70,0.00,,---,0.00,VWS V14.01,2013-05-11 12:52:00,
2013-05-11 07:54:00,33.1,24.4,30.45,NNW,329,0.0,1.0,70,0.00,,---,0.00,VWS V14.01,2013-05-11 12:54:00,
2013-05-11 07:57:00,33.5,24.4,30.44,NNW,329,1.0,1.0,69,0.00,,---,0.00,VWS V14.01,2013-05-11 12:57:00,
2013-05-11 08:00:00,33.8,24.7,30.44,NNW,329,0.0,1.0,69,0.00,,---,0.00,VWS V14.01,2013-05-11 13:00:00,
2013-05-11 08:02:00,34.2,25.1,30.44,NNW,329,0.0,1.0,69,0.00,,---,0.00,VWS V14.01,2013-05-11 13:02:00,
2013-05-11 08:03:00,34.3,25.2,30.44,NNW,329,0.0,1.0,69,0.00,,---,0.00,VWS V14.01,2013-05-11 13:03:00,
2013-05-11 08:05:00,34.8,25.3,30.44,NNW,329,0.0,1.0,68,0.00,,---,0.00,VWS V14.01,2013-05-11 13:05:00,
2013-05-11 08:07:00,35.3,25.5,30.44,NNW,329,0.0,0.0,67,0.00,,---,0.00,VWS V14.01,2013-05-11 13:07:00,
2013-05-11 08:08:00,35.3,25.5,30.44,NNW,329,0.0,0.0,67,0.00,,---,0.00,VWS V14.01,2013-05-11 13:08:00,
2013-05-11 08:10:00,36.1,25.1,30.44,NNW,329,0.0,0.0,64,0.00,,---,0.00,VWS V14.01,2013-05-11 13:10:00,
2013-05-11 08:12:00,36.6,25.2,30.44,NNW,329,0.0,0.0,63,0.00,,---,0.00,VWS V14.01,2013-05-11 13:12:00,
2013-05-11 08:13:00,36.7,25.3,30.44,NNW,329,0.0,0.0,63,0.00,,---,0.00,VWS V14.01,2013-05-11 13:13:00,
2013-05-11 08:15:00,37.3,25.1,30.44,NNW,329,0.0,0.0,61,0.00,,---,0.00,VWS V14.01,2013-05-11 13:15:00,
2013-05-11 08:17:00,37.9,25.7,30.44,NNW,329,0.0,0.0,61,0.00,,---,0.00,VWS V14.01,2013-05-11 13:17:00,
2013-05-11 08:18:00,38.1,25.5,30.44,NNW,329,0.0,0.0,60,0.00,,---,0.00,VWS V14.01,2013-05-11 13:18:00,
2013-05-11 08:20:00,38.6,25.1,30.44,NNW,329,0.0,1.0,58,0.00,,---,0.00,VWS V14.01,2013-05-11 13:20:00,
2013-05-11 08:22:00,38.6,25.1,30.44,NNW,329,0.0,0.0,58,0.00,,---,0.00,VWS V14.01,2013-05-11 13:22:00,
2013-05-11 08:23:00,38.6,25.1,30.44,NNW,329,0.0,0.0,58,0.00,,---,0.00,VWS V14.01,2013-05-11 13:23:00,
2013-05-11 08:25:00,38.6,25.1,30.44,NNW,329,0.0,0.0,58,0.00,,---,0.00,VWS V14.01,2013-05-11 13:25:00,
2013-05-11 08:27:00,38.7,24.8,30.44,NNW,329,0.0,2.0,57,0.00,,---,0.00,VWS V14.01,2013-05-11 13:27:00,
2013-05-11 08:28:00,38.8,24.9,30.44,NNW,329,1.0,2.0,57,0.00,,---,0.00,VWS V14.01,2013-05-11 13:28:00,
2013-05-11 08:30:00,38.9,24.6,30.44,NNW,329,0.0,2.0,56,0.00,,---,0.00,VWS V14.01,2013-05-11 13:30:00,
2013-05-11 08:32:00,39.0,24.6,30.44,NNW,329,0.0,2.0,56,0.00,,---,0.00,VWS V14.01,2013-05-11 13:32:00,
2013-05-11 08:33:00,39.1,24.7,30.44,NNW,329,0.0,2.0,56,0.00,,---,0.00,VWS V14.01,2013-05-11 13:33:00,
2013-05-11 08:35:00,39.4,24.6,30.44,NNW,329,0.0,2.0,55,0.00,,---,0.00,VWS V14.01,2013-05-11 13:35:00,
2013-05-11 08:37:00,39.6,24.8,30.44,NNW,329,0.0,0.0,55,0.00,,---,0.00,VWS V14.01,2013-05-11 13:37:00,
2013-05-11 08:38:00,39.7,24.4,30.44,NNW,329,0.0,0.0,54,0.00,,---,0.00,VWS V14.01,2013-05-11 13:38:00,
2013-05-11 08:41:00,40.1,24.8,30.44,NNW,329,0.0,0.0,54,0.00,,---,0.00,VWS V14.01,2013-05-11 13:41:00,
2013-05-11 08:42:00,40.4,24.6,30.44,NNW,329,2.0,2.0,53,0.00,,---,0.00,VWS V14.01,2013-05-11 13:42:00,
2013-05-11 08:43:00,40.5,24.7,30.44,NNW,329,2.0,2.0,53,0.00,,---,0.00,VWS V14.01,2013-05-11 13:43:00,
2013-05-11 08:46:00,40.6,23.9,30.44,NNW,329,1.0,3.0,51,0.00,,---,0.00,VWS V14.01,2013-05-11 13:46:00,
2013-05-11 08:47:00,40.4,23.7,30.44,NNW,329,1.0,3.0,51,0.00,,---,0.00,VWS V14.01,2013-05-11 13:47:00,
2013-05-11 08:48:00,40.3,23.6,30.44,NNW,329,2.0,3.0,51,0.00,,---,0.00,VWS V14.01,2013-05-11 13:48:00,
2013-05-11 08:51:00,40.1,23.4,30.44,NNW,329,0.0,3.0,51,0.00,,---,0.00,VWS V14.01,2013-05-11 13:51:00,
2013-05-11 08:52:00,40.2,23.1,30.44,NNW,329,0.0,0.0,50,0.00,,---,0.00,VWS V14.01,2013-05-11 13:52:00,
2013-05-11 08:53:00,40.2,23.1,30.44,NNW,329,0.0,0.0,50,0.00,,---,0.00,VWS V14.01,2013-05-11 13:53:00,
2013-05-11 08:56:00,40.4,22.8,30.44,NNW,329,0.0,2.0,49,0.00,,---,0.00,VWS V14.01,2013-05-11 13:56:00,
2013-05-11 08:57:00,40.4,22.8,30.44,NNW,329,0.0,2.0,49,0.00,,---,0.00,VWS V14.01,2013-05-11 13:57:00,
2013-05-11 08:58:00,40.5,22.9,30.44,NNW,329,3.0,3.0,49,0.00,,---,0.00,VWS V14.01,2013-05-11 13:58:00,
2013-05-11 09:01:00,40.7,22.1,30.44,NNE,28,2.0,3.0,47,0.00,,---,0.00,VWS V14.01,2013-05-11 14:01:00,
2013-05-11 09:02:00,40.6,22.5,30.44,ENE,60,3.0,4.0,48,0.00,,---,0.00,VWS V14.01,2013-05-11 14:02:00,
2013-05-11 09:03:00,40.6,23.0,30.44,East,84,1.0,4.0,49,0.00,,---,0.00,VWS V14.01,2013-05-11 14:03:00,
2013-05-11 09:06:00,40.5,23.3,30.44,East,84,2.0,4.0,50,0.00,,---,0.00,VWS V14.01,2013-05-11 14:06:00,
2013-05-11 09:07:00,40.4,22.8,30.44,East,84,1.0,2.0,49,0.00,,---,0.00,VWS V14.01,2013-05-11 14:07:00,
2013-05-11 09:08:00,40.4,22.8,30.44,East,84,0.0,2.0,49,0.00,,---,0.00,VWS V14.01,2013-05-11 14:08:00,
2013-05-11 09:11:00,40.4,22.8,30.44,East,84,0.0,2.0,49,0.00,,---,0.00,VWS V14.01,2013-05-11 14:11:00,
2013-05-11 09:12:00,40.3,22.7,30.44,East,84,1.0,2.0,49,0.00,,---,0.00,VWS V14.01,2013-05-11 14:12:00,
2013-05-11 09:13:00,40.4,22.8,30.44,East,84,1.0,2.0,49,0.00,,---,0.00,VWS V14.01,2013-05-11 14:13:00,
2013-05-11 09:14:00,40.4,22.8,30.44,East,84,3.0,3.0,49,0.00,,---,0.00,VWS V14.01,2013-05-11 14:14:00,
2013-05-11 09:16:00,40.4,22.3,30.43,SE,129,1.0,5.0,48,0.00,,---,0.00,VWS V14.01,2013-05-11 14:16:00,
2013-05-11 09:18:00,40.4,22.8,30.44,ESE,107,4.0,5.0,49,0.00,,---,0.00,VWS V14.01,2013-05-11 14:18:00,
2013-05-11 09:19:00,40.4,22.8,30.44,ESE,107,0.0,5.0,49,0.00,,---,0.00,VWS V14.01,2013-05-11 14:19:00,
2013-05-11 09:21:00,40.3,22.2,30.44,ESE,107,2.0,5.0,48,0.00,,---,0.00,VWS V14.01,2013-05-11 14:21:00,
2013-05-11 09:23:00,40.3,20.7,30.43,ESE,107,2.0,2.0,45,0.00,,---,0.00,VWS V14.01,2013-05-11 14:23:00,
2013-05-11 09:24:00,40.3,20.7,30.44,ESE,107,0.0,2.0,45,0.00,,---,0.00,VWS V14.01,2013-05-11 14:24:00,
2013-05-11 09:26:00,40.5,20.9,30.44,ESE,107,0.0,2.0,45,0.00,,---,0.00,VWS V14.01,2013-05-11 14:26:00,
2013-05-11 09:28:00,40.6,20.4,30.44,ESE,107,0.0,2.0,44,0.00,,---,0.00,VWS V14.01,2013-05-11 14:28:00,
2013-05-11 09:29:00,40.7,20.5,30.44,ESE,107,0.0,2.0,44,0.00,,---,0.00,VWS V14.01,2013-05-11 14:29:00,
2013-05-11 09:31:00,41.1,20.3,30.43,ESE,107,0.0,2.0,43,0.00,,---,0.00,VWS V14.01,2013-05-11 14:31:00,
2013-05-11 09:33:00,41.4,21.1,30.43,ESE,107,0.0,2.0,44,0.00,,---,0.00,VWS V14.01,2013-05-11 14:33:00,
2013-05-11 09:34:00,41.5,21.2,30.44,ESE,107,0.0,3.0,44,0.00,,---,0.00,VWS V14.01,2013-05-11 14:34:00,
2013-05-11 09:36:00,41.9,21.6,30.43,East,92,0.0,3.0,44,0.00,,---,0.00,VWS V14.01,2013-05-11 14:36:00,
2013-05-11 09:38:00,41.9,21.0,30.43,ENE,74,0.0,0.0,43,0.00,,---,0.00,VWS V14.01,2013-05-11 14:38:00,
2013-05-11 09:39:00,42.0,21.1,30.44,ENE,74,0.0,1.0,43,0.00,,---,0.00,VWS V14.01,2013-05-11 14:39:00,
2013-05-11 09:41:00,41.9,21.0,30.43,ENE,74,2.0,2.0,43,0.00,,---,0.00,VWS V14.01,2013-05-11 14:41:00,
2013-05-11 09:43:00,41.9,20.5,30.43,ENE,74,2.0,2.0,42,0.00,,---,0.00,VWS V14.01,2013-05-11 14:43:00,
2013-05-11 09:44:00,41.9,20.5,30.43,ENE,74,2.0,2.0,42,0.00,,---,0.00,VWS V14.01,2013-05-11 14:44:00,
2013-05-11 09:46:00,41.7,19.2,30.44,ENE,74,2.0,3.0,40,0.00,,---,0.00,VWS V14.01,2013-05-11 14:46:00,
2013-05-11 09:48:00,41.6,18.5,30.43,ENE,72,0.0,4.0,39,0.00,,---,0.00,VWS V14.01,2013-05-11 14:48:00,
2013-05-11 09:49:00,41.5,19.0,30.43,ENE,72,0.0,4.0,40,0.00,,---,0.00,VWS V14.01,2013-05-11 14:49:00,
2013-05-11 09:51:00,41.6,19.7,30.43,ENE,72,0.0,4.0,41,0.00,,---,0.00,VWS V14.01,2013-05-11 14:51:00,
2013-05-11 09:53:00,41.7,19.8,30.43,ENE,72,0.0,1.0,41,0.00,,---,0.00,VWS V14.01,2013-05-11 14:53:00,
2013-05-11 09:54:00,41.7,20.3,30.44,ENE,73,1.0,1.0,42,0.00,,---,0.00,VWS V14.01,2013-05-11 14:54:00,
2013-05-11 09:57:00,42.0,20.0,30.43,ENE,72,0.0,4.0,41,0.00,,---,0.00,VWS V14.01,2013-05-11 14:57:00,
2013-05-11 09:58:00,42.1,20.7,30.43,ENE,61,5.0,5.0,42,0.00,,---,0.00,VWS V14.01,2013-05-11 14:58:00,
2013-05-11 09:59:00,42.1,21.2,30.43,NNE,22,3.0,5.0,43,0.00,,---,0.00,VWS V14.01,2013-05-11 14:59:00,
2013-05-11 10:02:00,41.9,21.0,30.43,NNE,15,4.0,5.0,43,0.00,,---,0.00,VWS V14.01,2013-05-11 15:02:00,
2013-05-11 10:03:00,41.8,21.5,30.43,NNE,18,2.0,5.0,44,0.00,,---,0.00,VWS V14.01,2013-05-11 15:03:00,
2013-05-11 10:04:00,41.7,20.3,30.43,East,84,2.0,5.0,42,0.00,,---,0.00,VWS V14.01,2013-05-11 15:04:00,
2013-05-11 10:07:00,41.6,20.2,30.43,East,84,0.0,5.0,42,0.00,,---,0.00,VWS V14.01,2013-05-11 15:07:00,
2013-05-11 10:08:00,41.7,20.3,30.43,East,84,2.0,2.0,42,0.00,,---,0.00,VWS V14.01,2013-05-11 15:08:00,
2013-05-11 10:09:00,41.8,20.4,30.43,NE,55,2.0,7.0,42,0.00,,---,0.00,VWS V14.01,2013-05-11 15:09:00,
2013-05-11 10:10:00,41.8,19.8,30.43,NE,55,2.0,7.0,41,0.00,,---,0.00,VWS V14.01,2013-05-11 15:10:00,
2013-05-11 10:12:00,41.9,19.4,30.43,NE,55,0.0,7.0,40,0.00,,---,0.00,VWS V14.01,2013-05-11 15:12:00,
2013-05-11 10:13:00,41.9,18.8,30.43,NE,55,1.0,7.0,39,0.00,,---,0.00,VWS V14.01,2013-05-11 15:13:00,
2013-05-11 10:14:00,42.0,19.5,30.43,NE,55,1.0,7.0,40,0.00,,---,0.00,VWS V14.01,2013-05-11 15:14:00,
2013-05-11 10:15:00,42.0,19.5,30.43,NE,55,0.0,7.0,40,0.00,,---,0.00,VWS V14.01,2013-05-11 15:15:00,
2013-05-11 10:17:00,42.4,19.8,30.43,East,92,3.0,7.0,40,0.00,,---,0.00,VWS V14.01,2013-05-11 15:17:00,
2013-05-11 10:18:00,42.6,19.4,30.43,North,9,3.0,7.0,39,0.00,,---,0.00,VWS V14.01,2013-05-11 15:18:00,
2013-05-11 10:19:00,42.6,18.8,30.43,North,5,3.0,7.0,38,0.00,,---,0.00,VWS V14.01,2013-05-11 15:19:00,
2013-05-11 10:20:00,42.7,19.5,30.43,North,5,3.0,7.0,39,0.00,,---,0.00,VWS V14.01,2013-05-11 15:20:00,
2013-05-11 10:22:00,42.8,19.6,30.43,North,5,3.0,7.0,39,0.00,,---,0.00,VWS V14.01,2013-05-11 15:22:00,
2013-05-11 10:23:00,42.8,19.0,30.43,North,5,4.0,4.0,38,0.00,,---,0.00,VWS V14.01,2013-05-11 15:23:00,
2013-05-11 10:24:00,42.7,18.9,30.43,North,5,0.0,4.0,38,0.00,,---,0.00,VWS V14.01,2013-05-11 15:24:00,
2013-05-11 10:25:00,42.7,18.9,30.43,North,5,0.0,4.0,38,0.00,,---,0.00,VWS V14.01,2013-05-11 15:25:00,
2013-05-11 10:27:00,42.7,19.5,30.43,NW,323,2.0,5.0,39,0.00,,---,0.00,VWS V14.01,2013-05-11 15:27:00,
2013-05-11 10:28:00,42.7,18.3,30.43,NW,323,1.0,5.0,37,0.00,,---,0.00,VWS V14.01,2013-05-11 15:28:00,
2013-05-11 10:29:00,42.6,18.8,30.43,NW,323,2.0,5.0,38,0.00,,---,0.00,VWS V14.01,2013-05-11 15:29:00,
2013-05-11 10:30:00,42.6,18.8,30.43,NW,323,1.0,5.0,38,0.00,,---,0.00,VWS V14.01,2013-05-11 15:30:00,
2013-05-11 10:32:00,42.5,19.3,30.43,NW,323,1.0,5.0,39,0.00,,---,0.00,VWS V14.01,2013-05-11 15:32:00,
2013-05-11 10:33:00,42.5,19.3,30.43,NW,323,4.0,5.0,39,0.00,,---,0.00,VWS V14.01,2013-05-11 15:33:00,
2013-05-11 10:34:00,42.5,19.3,30.43,WNW,303,3.0,6.0,39,0.00,,---,0.00,VWS V14.01,2013-05-11 15:34:00,
2013-05-11 10:35:00,42.5,18.7,30.43,WNW,300,4.0,6.0,38,0.00,,---,0.00,VWS V14.01,2013-05-11 15:35:00,
2013-05-11 10:37:00,42.4,18.6,30.43,WNW,298,3.0,6.0,38,0.00,,---,0.00,VWS V14.01,2013-05-11 15:37:00,
2013-05-11 10:39:00,42.3,18.5,30.43,WNW,298,2.0,2.0,38,0.00,,---,0.00,VWS V14.01,2013-05-11 15:39:00,
2013-05-11 10:40:00,42.3,18.5,30.43,WNW,298,4.0,4.0,38,0.00,,---,0.00,VWS V14.01,2013-05-11 15:40:00,
2013-05-11 10:42:00,42.4,18.0,30.43,WNW,298,1.0,5.0,37,0.00,,---,0.00,VWS V14.01,2013-05-11 15:42:00,
2013-05-11 10:44:00,42.5,18.7,30.42,WNW,298,3.0,5.0,38,0.00,,---,0.00,VWS V14.01,2013-05-11 15:44:00,
2013-05-11 10:45:00,42.6,18.2,30.42,WNW,294,4.0,5.0,37,0.00,,---,0.00,VWS V14.01,2013-05-11 15:45:00,
2013-05-11 10:47:00,42.7,18.3,30.42,WNW,291,0.0,5.0,37,0.00,,---,0.00,VWS V14.01,2013-05-11 15:47:00,
2013-05-11 10:49:00,42.9,18.4,30.42,WNW,291,0.0,5.0,37,0.00,,---,0.00,VWS V14.01,2013-05-11 15:49:00,
2013-05-11 10:50:00,43.2,19.3,30.42,WNW,291,2.0,5.0,38,0.00,,---,0.00,VWS V14.01,2013-05-11 15:50:00,
2013-05-11 10:52:00,43.6,19.1,30.42,WNW,291,1.0,5.0,37,0.00,,---,0.00,VWS V14.01,2013-05-11 15:52:00,
2013-05-11 10:54:00,43.8,18.6,30.42,WNW,291,0.0,2.0,36,0.00,,---,0.00,VWS V14.01,2013-05-11 15:54:00,
2013-05-11 10:55:00,44.1,18.9,30.42,WNW,291,3.0,3.0,36,0.00,,---,0.00,VWS V14.01,2013-05-11 15:55:00,
2013-05-11 10:57:00,44.3,18.4,30.41,WNW,291,1.0,3.0,35,0.00,,---,0.00,VWS V14.01,2013-05-11 15:57:00,
2013-05-11 10:59:00,44.3,18.4,30.41,NE,36,2.0,5.0,35,0.00,,---,0.00,VWS V14.01,2013-05-11 15:59:00,
2013-05-11 11:00:00,44.3,18.4,30.41,NE,52,3.0,5.0,35,0.00,,---,0.00,VWS V14.01,2013-05-11 16:00:00,
2013-05-11 11:02:00,44.4,18.5,30.41,NE,52,1.0,5.0,35,0.00,,---,0.00,VWS V14.01,2013-05-11 16:02:00,
2013-05-11 11:04:00,44.4,17.1,30.41,East,94,1.0,5.0,33,0.00,,---,0.00,VWS V14.01,2013-05-11 16:04:00,
2013-05-11 11:05:00,44.3,17.0,30.41,East,94,1.0,5.0,33,0.00,,---,0.00,VWS V14.01,2013-05-11 16:05:00,
2013-05-11 11:07:00,44.2,17.6,30.41,East,94,2.0,5.0,34,0.00,,---,0.00,VWS V14.01,2013-05-11 16:07:00,
2013-05-11 11:09:00,44.3,17.7,30.41,East,98,7.0,7.0,34,0.00,,---,0.00,VWS V14.01,2013-05-11 16:09:00,
2013-05-11 11:10:00,44.5,17.2,30.41,East,98,3.0,7.0,33,0.00,,---,0.00,VWS V14.01,2013-05-11 16:10:00,
2013-05-11 11:12:00,44.7,17.4,30.41,East,94,5.0,7.0,33,0.00,,---,0.00,VWS V14.01,2013-05-11 16:12:00,
2013-05-11 11:14:00,44.8,17.5,30.41,North,5,4.0,7.0,33,0.00,,---,0.00,VWS V14.01,2013-05-11 16:14:00,
2013-05-11 11:15:00,44.7,17.4,30.41,North,5,1.0,7.0,33,0.00,,---,0.00,VWS V14.01,2013-05-11 16:15:00,
2013-05-11 11:17:00,44.7,18.1,30.41,NNW,333,3.0,7.0,34,0.00,,---,0.00,VWS V14.01,2013-05-11 16:17:00,
2013-05-11 11:19:00,44.8,18.2,30.41,NE,44,4.0,7.0,34,0.00,,---,0.00,VWS V14.01,2013-05-11 16:19:00,
2013-05-11 11:20:00,45.0,17.6,30.41,NE,44,0.0,7.0,33,0.00,,---,0.00,VWS V14.01,2013-05-11 16:20:00,
2013-05-11 11:21:00,45.0,17.6,30.41,NE,44,1.0,7.0,33,0.00,,---,0.00,VWS V14.01,2013-05-11 16:21:00,
2013-05-11 11:22:00,45.2,18.5,30.41,NE,53,4.0,4.0,34,0.00,,---,0.00,VWS V14.01,2013-05-11 16:22:00,
2013-05-11 11:24:00,45.1,17.0,30.41,NE,51,1.0,6.0,32,0.00,,---,0.00,VWS V14.01,2013-05-11 16:24:00,
2013-05-11 11:25:00,45.1,17.7,30.41,NE,35,2.0,6.0,33,0.00,,---,0.00,VWS V14.01,2013-05-11 16:25:00,
2013-05-11 11:26:00,45.1,17.7,30.41,NE,35,2.0,6.0,33,0.00,,---,0.00,VWS V14.01,2013-05-11 16:26:00,
2013-05-11 11:28:00,45.3,17.9,30.41,ENE,58,5.0,6.0,33,0.00,,---,0.00,VWS V14.01,2013-05-11 16:28:00,
2013-05-11 11:29:00,45.1,17.0,30.41,ENE,78,3.0,7.0,32,0.00,,---,0.00,VWS V14.01,2013-05-11 16:29:00,
2013-05-11 11:30:00,45.1,17.7,30.41,NE,42,4.0,7.0,33,0.00,,---,0.00,VWS V14.01,2013-05-11 16:30:00,
2013-05-11 11:31:00,45.1,17.7,30.41,NE,51,6.0,7.0,33,0.00,,---,0.00,VWS V14.01,2013-05-11 16:31:00,
2013-05-11 11:33:00,45.1,17.7,30.41,NE,49,1.0,7.0,33,0.00,,---,0.00,VWS V14.01,2013-05-11 16:33:00,
2013-05-11 11:34:00,45.1,17.7,30.41,NE,49,1.0,7.0,33,0.00,,---,0.00,VWS V14.01,2013-05-11 16:34:00,
2013-05-11 11:35:00,45.2,17.8,30.41,NE,49,0.0,7.0,33,0.00,,---,0.00,VWS V14.01,2013-05-11 16:35:00,
2013-05-11 11:36:00,45.2,17.8,30.41,NE,49,0.0,7.0,33,0.00,,---,0.00,VWS V14.01,2013-05-11 16:36:00,
2013-05-11 11:38:00,45.3,17.2,30.41,ENE,59,1.0,3.0,32,0.00,,---,0.00,VWS V14.01,2013-05-11 16:38:00,
2013-05-11 11:39:00,45.3,16.5,30.41,NE,38,0.0,5.0,31,0.00,,---,0.00,VWS V14.01,2013-05-11 16:39:00,
2013-05-11 11:40:00,45.2,17.1,30.41,NNE,16,5.0,5.0,32,0.00,,---,0.00,VWS V14.01,2013-05-11 16:40:00,
2013-05-11 11:41:00,45.2,17.1,30.41,NNE,28,3.0,5.0,32,0.00,,---,0.00,VWS V14.01,2013-05-11 16:41:00,
2013-05-11 11:43:00,45.2,16.4,30.41,NNW,337,4.0,5.0,31,0.00,,---,0.00,VWS V14.01,2013-05-11 16:43:00,
2013-05-11 11:44:00,45.1,17.0,30.41,NNW,338,1.0,5.0,32,0.00,,---,0.00,VWS V14.01,2013-05-11 16:44:00,
2013-05-11 11:46:00,45.1,17.0,30.41,ESE,123,2.0,5.0,32,0.00,,---,0.00,VWS V14.01,2013-05-11 16:46:00,
2013-05-11 11:48:00,45.3,16.5,30.41,East,90,3.0,5.0,31,0.00,,---,0.00,VWS V14.01,2013-05-11 16:48:00,
2013-05-11 11:49:00,45.4,17.3,30.41,NW,325,4.0,5.0,32,0.00,,---,0.00,VWS V14.01,2013-05-11 16:49:00,
2013-05-11 11:50:00,45.5,17.4,30.41,NW,309,4.0,5.0,32,0.00,,---,0.00,VWS V14.01,2013-05-11 16:50:00,
2013-05-11 11:51:00,45.5,17.4,30.41,NW,309,2.0,5.0,32,0.00,,---,0.00,VWS V14.01,2013-05-11 16:51:00,
2013-05-11 11:53:00,45.7,17.5,30.41,NW,309,1.0,1.0,32,0.00,,---,0.00,VWS V14.01,2013-05-11 16:53:00,
2013-05-11 11:55:00,46.0,17.1,30.41,NNE,22,3.0,5.0,31,0.00,,---,0.00,VWS V14.01,2013-05-11 16:55:00,
2013-05-11 11:56:00,46.0,17.8,30.41,NW,325,3.0,5.0,32,0.00,,---,0.00,VWS V14.01,2013-05-11 16:56:00,
2013-05-11 11:58:00,46.0,17.1,30.40,NW,316,3.0,5.0,31,0.00,,---,0.00,VWS V14.01,2013-05-11 16:58:00,
2013-05-11 12:00:00,45.8,16.9,30.40,NW,311,0.0,6.0,31,0.00,,---,0.00,VWS V14.01,2013-05-11 17:00:00,
2013-05-11 12:01:00,45.8,16.9,30.40,NW,311,2.0,6.0,31,0.00,,---,0.00,VWS V14.01,2013-05-11 17:01:00,
2013-05-11 12:03:00,45.7,16.8,30.40,NNE,18,2.0,6.0,31,0.00,,---,0.00,VWS V14.01,2013-05-11 17:03:00,
2013-05-11 12:05:00,45.8,17.6,30.40,NNW,346,3.0,6.0,32,0.00,,---,0.00,VWS V14.01,2013-05-11 17:05:00,
2013-05-11 12:06:00,46.0,17.8,30.40,North,355,3.0,6.0,32,0.00,,---,0.00,VWS V14.01,2013-05-11 17:06:00,
2013-05-11 12:08:00,46.3,18.1,30.40,NNE,29,4.0,5.0,32,0.00,,---,0.00,VWS V14.01,2013-05-11 17:08:00,
2013-05-11 12:10:00,46.3,17.3,30.40,NW,315,6.0,6.0,31,0.00,,---,0.00,VWS V14.01,2013-05-11 17:10:00,
2013-05-11 12:11:00,46.2,16.5,30.40,NW,314,4.0,6.0,30,0.00,,---,0.00,VWS V14.01,2013-05-11 17:11:00,
2013-05-11 12:13:00,45.9,17.0,30.40,NW,314,2.0,6.0,31,0.00,,---,0.00,VWS V14.01,2013-05-11 17:13:00,
2013-05-11 12:15:00,45.7,16.8,30.40,NW,314,3.0,6.0,31,0.00,,---,0.00,VWS V14.01,2013-05-11 17:15:00,
2013-05-11 12:16:00,45.8,16.9,30.40,NW,314,0.0,6.0,31,0.00,,---,0.00,VWS V14.01,2013-05-11 17:16:00,
2013-05-11 12:18:00,46.0,17.8,30.40,West,275,6.0,6.0,32,0.00,,---,0.00,VWS V14.01,2013-05-11 17:18:00,
2013-05-11 12:20:00,46.2,18.0,30.40,West,275,3.0,6.0,32,0.00,,---,0.00,VWS V14.01,2013-05-11 17:20:00,
2013-05-11 12:21:00,46.3,17.3,30.40,WNW,292,5.0,6.0,31,0.00,,---,0.00,VWS V14.01,2013-05-11 17:21:00,
2013-05-11 12:23:00,46.4,18.2,30.39,WNW,292,2.0,3.0,32,0.00,,---,0.00,VWS V14.01,2013-05-11 17:23:00,
2013-05-11 12:25:00,46.7,18.4,30.39,West,275,2.0,6.0,32,0.00,,---,0.00,VWS V14.01,2013-05-11 17:25:00,
2013-05-11 12:26:00,46.9,17.9,30.39,WNW,298,0.0,6.0,31,0.00,,---,0.00,VWS V14.01,2013-05-11 17:26:00,
2013-05-11 12:28:00,47.0,18.0,30.39,WNW,298,1.0,6.0,31,0.00,,---,0.00,VWS V14.01,2013-05-11 17:28:00,
2013-05-11 12:30:00,47.2,18.1,30.39,WNW,298,2.0,6.0,31,0.00,,---,0.00,VWS V14.01,2013-05-11 17:30:00,
2013-05-11 12:31:00,47.4,19.0,30.39,WNW,298,0.0,6.0,32,0.00,,---,0.00,VWS V14.01,2013-05-11 17:31:00,
2013-05-11 12:33:00,47.5,17.6,30.39,WNW,298,3.0,6.0,30,0.00,,---,0.00,VWS V14.01,2013-05-11 17:33:00,
2013-05-11 12:35:00,47.7,18.6,30.39,NE,55,4.0,6.0,31,0.00,,---,0.00,VWS V14.01,2013-05-11 17:35:00,
2013-05-11 12:36:00,47.9,18.0,30.39,NE,55,0.0,6.0,30,0.00,,---,0.00,VWS V14.01,2013-05-11 17:36:00,
2013-05-11 12:38:00,48.0,18.1,30.38,NE,50,2.0,5.0,30,0.00,,---,0.00,VWS V14.01,2013-05-11 17:38:00,
2013-05-11 12:40:00,48.2,18.2,30.38,NNE,17,4.0,5.0,30,0.00,,---,0.00,VWS V14.01,2013-05-11 17:40:00,
2013-05-11 12:41:00,48.2,18.2,30.38,North,355,3.0,5.0,30,0.00,,---,0.00,VWS V14.01,2013-05-11 17:41:00,
2013-05-11 12:43:00,48.1,17.4,30.38,East,81,0.0,5.0,29,0.00,,---,0.00,VWS V14.01,2013-05-11 17:43:00,
2013-05-11 12:45:00,48.1,17.4,30.38,NE,42,2.0,5.0,29,0.00,,---,0.00,VWS V14.01,2013-05-11 17:45:00,
2013-05-11 12:46:00,48.2,18.2,30.38,NE,42,2.0,5.0,30,0.00,,---,0.00,VWS V14.01,2013-05-11 17:46:00,
2013-05-11 12:47:00,48.2,18.2,30.38,NE,46,2.0,5.0,30,0.00,,---,0.00,VWS V14.01,2013-05-11 17:47:00,
2013-05-11 12:48:00,48.2,16.6,30.38,ENE,74,1.0,5.0,28,0.00,,---,0.00,VWS V14.01,2013-05-11 17:48:00,
2013-05-11 12:50:00,48.3,17.5,30.38,ENE,74,3.0,5.0,29,0.00,,---,0.00,VWS V14.01,2013-05-11 17:50:00,
2013-05-11 12:51:00,48.1,16.5,30.38,ENE,74,0.0,5.0,28,0.00,,---,0.00,VWS V14.01,2013-05-11 17:51:00,
2013-05-11 12:52:00,48.1,16.5,30.38,ENE,74,1.0,5.0,28,0.00,,---,0.00,VWS V14.01,2013-05-11 17:52:00,
2013-05-11 12:53:00,48.1,16.5,30.38,ENE,72,2.0,2.0,28,0.00,,---,0.00,VWS V14.01,2013-05-11 17:53:00,
2013-05-11 12:55:00,48.1,17.4,30.38,NW,315,1.0,4.0,29,0.00,,---,0.00,VWS V14.01,2013-05-11 17:55:00,
2013-05-11 12:56:00,48.3,17.5,30.38,East,89,7.0,7.0,29,0.00,,---,0.00,VWS V14.01,2013-05-11 17:56:00,
2013-05-11 12:57:00,48.3,17.5,30.38,ENE,73,9.0,9.0,29,0.00,,---,0.00,VWS V14.01,2013-05-11 17:57:00,
2013-05-11 12:58:00,48.3,16.7,30.38,NE,45,3.0,9.0,28,0.00,,---,0.00,VWS V14.01,2013-05-11 17:58:00,
2013-05-11 13:00:00,48.3,16.7,30.38,SE,124,2.0,9.0,28,0.00,,---,0.00,VWS V14.01,2013-05-11 18:00:00,
2013-05-11 13:02:00,48.3,16.7,30.37,NNE,12,0.0,9.0,28,0.00,,---,0.00,VWS V14.01,2013-05-11 18:02:00,
2013-05-11 13:03:00,48.5,17.7,30.37,East,80,6.0,9.0,29,0.00,,---,0.00,VWS V14.01,2013-05-11 18:03:00,
2013-05-11 13:05:00,48.3,16.7,30.37,ENE,71,3.0,9.0,28,0.00,,---,0.00,VWS V14.01,2013-05-11 18:05:00,
2013-05-11 13:07:00,48.2,16.6,30.37,NE,39,5.0,9.0,28,0.00,,---,0.00,VWS V14.01,2013-05-11 18:07:00,
2013-05-11 13:08:00,48.0,16.5,30.37,ENE,67,4.0,7.0,28,0.00,,---,0.00,VWS V14.01,2013-05-11 18:08:00,
2013-05-11 13:10:00,48.1,16.5,30.37,East,82,7.0,7.0,28,0.00,,---,0.00,VWS V14.01,2013-05-11 18:10:00,
2013-05-11 13:12:00,48.2,16.6,30.37,East,82,1.0,7.0,28,0.00,,---,0.00,VWS V14.01,2013-05-11 18:12:00,
2013-05-11 13:13:00,48.3,16.7,30.37,NE,35,4.0,7.0,28,0.00,,---,0.00,VWS V14.01,2013-05-11 18:13:00,
2013-05-11 13:15:00,48.3,16.7,30.37,ENE,70,4.0,7.0,28,0.00,,---,0.00,VWS V14.01,2013-05-11 18:15:00,
2013-05-11 13:17:00,48.2,15.8,30.37,ENE,74,0.0,7.0,27,0.00,,---,0.00,VWS V14.01,2013-05-11 18:17:00,
2013-05-11 13:18:00,48.2,15.8,30.37,East,80,5.0,7.0,27,0.00,,---,0.00,VWS V14.01,2013-05-11 18:18:00,
2013-05-11 13:20:00,48.0,15.6,30.36,ESE,106,4.0,7.0,27,0.00,,---,0.00,VWS V14.01,2013-05-11 18:20:00,
2013-05-11 13:22:00,47.9,16.4,30.36,ESE,105,1.0,7.0,28,0.00,,---,0.00,VWS V14.01,2013-05-11 18:22:00,
2013-05-11 13:24:00,48.2,16.6,30.36,SSW,194,4.0,5.0,28,0.00,,---,0.00,VWS V14.01,2013-05-11 18:24:00,
2013-05-11 13:26:00,48.4,16.0,30.36,SSW,194,2.0,5.0,27,0.00,,---,0.00,VWS V14.01,2013-05-11 18:26:00,
2013-05-11 13:27:00,48.6,17.0,30.36,SSW,194,5.0,5.0,28,0.00,,---,0.00,VWS V14.01,2013-05-11 18:27:00,
2013-05-11 13:29:00,48.7,15.4,30.36,SW,219,5.0,5.0,26,0.00,,---,0.00,VWS V14.01,2013-05-11 18:29:00,
2013-05-11 13:31:00,48.7,15.4,30.36,SW,232,2.0,5.0,26,0.00,,---,0.00,VWS V14.01,2013-05-11 18:31:00,
2013-05-11 13:32:00,48.8,16.3,30.36,SSW,206,4.0,5.0,27,0.00,,---,0.00,VWS V14.01,2013-05-11 18:32:00,
2013-05-11 13:34:00,49.0,16.5,30.36,SW,215,6.0,6.0,27,0.00,,---,0.00,VWS V14.01,2013-05-11 18:34:00,
2013-05-11 13:36:00,49.1,15.7,30.36,WSW,238,2.0,6.0,26,0.00,,---,0.00,VWS V14.01,2013-05-11 18:36:00,
2013-05-11 13:37:00,49.2,15.8,30.36,WNW,302,0.0,6.0,26,0.00,,---,0.00,VWS V14.01,2013-05-11 18:37:00,
2013-05-11 13:39:00,49.3,15.9,30.36,South,179,5.0,7.0,26,0.00,,---,0.00,VWS V14.01,2013-05-11 18:39:00,
2013-05-11 13:41:00,49.6,17.9,30.36,SW,216,6.0,8.0,28,0.00,,---,0.00,VWS V14.01,2013-05-11 18:41:00,
2013-05-11 13:42:00,49.8,16.3,30.36,South,191,3.0,8.0,26,0.00,,---,0.00,VWS V14.01,2013-05-11 18:42:00,
2013-05-11 13:43:00,49.9,16.4,30.36,SW,216,0.0,8.0,26,0.00,,---,0.00,VWS V14.01,2013-05-11 18:43:00,
2013-05-11 13:44:00,49.9,16.4,30.36,WSW,255,6.0,8.0,26,0.00,,---,0.00,VWS V14.01,2013-05-11 18:44:00,
2013-05-11 13:46:00,49.6,15.2,30.36,SW,222,4.0,8.0,25,0.00,,---,0.00,VWS V14.01,2013-05-11 18:46:00,
2013-05-11 13:47:00,49.4,16.0,30.35,West,259,0.0,8.0,26,0.00,,---,0.00,VWS V14.01,2013-05-11 18:47:00,
2013-05-11 13:48:00,49.4,16.0,30.35,South,188,4.0,8.0,26,0.00,,---,0.00,VWS V14.01,2013-05-11 18:48:00,
2013-05-11 13:49:00,49.4,15.1,30.35,South,188,3.0,8.0,25,0.00,,---,0.00,VWS V14.01,2013-05-11 18:49:00,
2013-05-11 13:51:00,49.3,15.9,30.35,SE,144,4.0,8.0,26,0.00,,---,0.00,VWS V14.01,2013-05-11 18:51:00,
2013-05-11 13:52:00,49.2,15.8,30.35,SE,142,4.0,5.0,26,0.00,,---,0.00,VWS V14.01,2013-05-11 18:52:00,
2013-05-11 13:53:00,49.2,15.8,30.35,SE,142,1.0,5.0,26,0.00,,---,0.00,VWS V14.01,2013-05-11 18:53:00,
2013-05-11 13:54:00,49.2,15.8,30.35,SE,139,3.0,5.0,26,0.00,,---,0.00,VWS V14.01,2013-05-11 18:54:00,
2013-05-11 13:56:00,49.2,16.7,30.35,East,98,3.0,8.0,27,0.00,,---,0.00,VWS V14.01,2013-05-11 18:56:00,
2013-05-11 13:57:00,49.3,15.9,30.35,ESE,103,5.0,8.0,26,0.00,,---,0.00,VWS V14.01,2013-05-11 18:57:00,
2013-05-11 13:58:00,49.3,15.9,30.35,ENE,67,4.0,8.0,26,0.00,,---,0.00,VWS V14.01,2013-05-11 18:58:00,
2013-05-11 13:59:00,49.3,16.8,30.35,ENE,63,2.0,8.0,27,0.00,,---,0.00,VWS V14.01,2013-05-11 18:59:00,
2013-05-11 14:01:00,49.4,16.8,30.35,ENE,73,3.0,8.0,27,0.00,,---,0.00,VWS V14.01,2013-05-11 19:01:00,
2013-05-11 14:02:00,49.3,15.9,30.35,ENE,74,3.0,8.0,26,0.00,,---,0.00,VWS V14.01,2013-05-11 19:02:00,
2013-05-11 14:03:00,49.3,16.8,30.35,ENE,74,2.0,8.0,27,0.00,,---,0.00,VWS V14.01,2013-05-11 19:03:00,
2013-05-11 14:04:00,49.3,15.9,30.35,ENE,74,3.0,8.0,26,0.00,,---,0.00,VWS V14.01,2013-05-11 19:04:00,
2013-05-11 14:06:00,49.1,15.7,30.35,NE,45,4.0,8.0,26,0.00,,---,0.00,VWS V14.01,2013-05-11 19:06:00,
2013-05-11 14:07:00,49.1,16.6,30.35,NW,311,0.0,1.0,27,0.00,,---,0.00,VWS V14.01,2013-05-11 19:07:00,
2013-05-11 14:08:00,49.1,16.6,30.35,NW,311,0.0,1.0,27,0.00,,---,0.00,VWS V14.01,2013-05-11 19:08:00,
2013-05-11 14:09:00,49.2,16.7,30.35,NW,325,2.0,2.0,27,0.00,,---,0.00,VWS V14.01,2013-05-11 19:09:00,
2013-05-11 14:11:00,49.5,16.9,30.34,East,86,0.0,3.0,27,0.00,,---,0.00,VWS V14.01,2013-05-11 19:11:00,
2013-05-11 14:12:00,49.8,17.2,30.34,SW,229,4.0,5.0,27,0.00,,---,0.00,VWS V14.01,2013-05-11 19:12:00,
2013-05-11 14:13:00,49.9,18.1,30.34,SW,229,4.0,5.0,28,0.00,,---,0.00,VWS V14.01,2013-05-11 19:13:00,
2013-05-11 14:14:00,50.1,17.4,30.34,SW,226,2.0,5.0,27,0.00,,---,0.00,VWS V14.01,2013-05-11 19:14:00,
2013-05-11 14:16:00,50.3,17.6,30.34,SW,226,0.0,5.0,27,0.00,,---,0.00,VWS V14.01,2013-05-11 19:16:00,
2013-05-11 14:17:00,50.6,18.7,30.34,South,173,7.0,7.0,28,0.00,,---,0.00,VWS V14.01,2013-05-11 19:17:00,
2013-05-11 14:18:00,50.7,18.0,30.34,South,175,7.0,8.0,27,0.00,,---,0.00,VWS V14.01,2013-05-11 19:18:00,
2013-05-11 14:19:00,50.7,17.1,30.34,South,187,8.0,8.0,26,0.00,,---,0.00,VWS V14.01,2013-05-11 19:19:00,
2013-05-11 14:21:00,50.7,17.1,30.34,SW,229,3.0,8.0,26,0.00,,---,0.00,VWS V14.01,2013-05-11 19:21:00,
2013-05-11 14:22:00,50.5,16.9,30.34,SW,229,2.0,3.0,26,0.00,,---,0.00,VWS V14.01,2013-05-11 19:22:00,
2013-05-11 14:23:00,50.5,16.9,30.34,SW,229,1.0,3.0,26,0.00,,---,0.00,VWS V14.01,2013-05-11 19:23:00,
2013-05-11 14:24:00,50.5,16.9,30.34,SW,229,0.0,3.0,26,0.00,,---,0.00,VWS V14.01,2013-05-11 19:24:00,
2013-05-11 14:26:00,50.6,16.1,30.34,SW,229,0.0,3.0,25,0.00,,---,0.00,VWS V14.01,2013-05-11 19:26:00,
2013-05-11 14:27:00,50.6,17.0,30.34,SW,229,0.0,3.0,26,0.00,,---,0.00,VWS V14.01,2013-05-11 19:27:00,
2013-05-11 14:28:00,50.6,17.0,30.33,SE,133,3.0,5.0,26,0.00,,---,0.00,VWS V14.01,2013-05-11 19:28:00,
2013-05-11 14:29:00,50.6,17.0,30.33,SE,133,2.0,5.0,26,0.00,,---,0.00,VWS V14.01,2013-05-11 19:29:00,
2013-05-11 14:31:00,50.6,17.0,30.33,SE,133,4.0,5.0,26,0.00,,---,0.00,VWS V14.01,2013-05-11 19:31:00,
2013-05-11 14:32:00,50.5,16.9,30.33,SE,133,2.0,5.0,26,0.00,,---,0.00,VWS V14.01,2013-05-11 19:32:00,
2013-05-11 14:33:00,50.4,16.8,30.33,SE,133,3.0,5.0,26,0.00,,---,0.00,VWS V14.01,2013-05-11 19:33:00,
2013-05-11 14:34:00,50.3,16.7,30.33,SE,133,2.0,5.0,26,0.00,,---,0.00,VWS V14.01,2013-05-11 19:34:00,
2013-05-11 14:36:00,50.3,16.7,30.33,ESE,117,3.0,5.0,26,0.00,,---,0.00,VWS V14.01,2013-05-11 19:36:00,
2013-05-11 14:37:00,50.5,17.8,30.33,North,360,5.0,5.0,27,0.00,,---,0.00,VWS V14.01,2013-05-11 19:37:00,
2013-05-11 14:38:00,50.6,17.9,30.33,NE,41,4.0,6.0,27,0.00,,---,0.00,VWS V14.01,2013-05-11 19:38:00,
2013-05-11 14:40:00,50.7,18.0,30.33,NE,46,2.0,6.0,27,0.00,,---,0.00,VWS V14.01,2013-05-11 19:40:00,
2013-05-11 14:41:00,50.9,17.2,30.33,ENE,65,2.0,6.0,26,0.00,,---,0.00,VWS V14.01,2013-05-11 19:41:00,
2013-05-11 14:42:00,50.9,18.1,30.33,NE,43,3.0,7.0,27,0.00,,---,0.00,VWS V14.01,2013-05-11 19:42:00,
2013-05-11 14:43:00,50.9,17.2,30.33,NE,43,5.0,7.0,26,0.00,,---,0.00,VWS V14.01,2013-05-11 19:43:00,
2013-05-11 14:45:00,50.8,18.0,30.33,ENE,57,8.0,8.0,27,0.00,,---,0.00,VWS V14.01,2013-05-11 19:45:00,
2013-05-11 14:46:00,50.7,17.1,30.33,NE,47,2.0,9.0,26,0.00,,---,0.00,VWS V14.01,2013-05-11 19:46:00,
2013-05-11 14:47:00,50.6,17.0,30.33,NE,47,1.0,9.0,26,0.00,,---,0.00,VWS V14.01,2013-05-11 19:47:00,
2013-05-11 14:48:00,50.6,17.0,30.33,NE,47,3.0,9.0,26,0.00,,---,0.00,VWS V14.01,2013-05-11 19:48:00,
2013-05-11 14:49:00,50.6,17.0,30.33,NE,47,3.0,9.0,26,0.00,,---,0.00,VWS V14.01,2013-05-11 19:49:00,
2013-05-11 14:50:00,50.8,17.2,30.33,NE,53,3.0,9.0,26,0.00,,---,0.00,VWS V14.01,2013-05-11 19:50:00,
2013-05-11 14:51:00,50.9,17.2,30.33,NE,53,1.0,9.0,26,0.00,,---,0.00,VWS V14.01,2013-05-11 19:51:00,
2013-05-11 14:52:00,50.9,17.2,30.32,NE,53,2.0,2.0,26,0.00,,---,0.00,VWS V14.01,2013-05-11 19:52:00,
2013-05-11 14:53:00,51.0,17.3,30.32,NE,53,1.0,3.0,26,0.00,,---,0.00,VWS V14.01,2013-05-11 19:53:00,
2013-05-11 14:54:00,51.1,17.4,30.32,NE,53,1.0,3.0,26,0.00,,---,0.00,VWS V14.01,2013-05-11 19:54:00,
2013-05-11 14:55:00,51.3,17.6,30.32,NE,53,2.0,3.0,26,0.00,,---,0.00,VWS V14.01,2013-05-11 19:55:00,
2013-05-11 14:56:00,51.5,17.8,30.32,NE,53,0.0,3.0,26,0.00,,---,0.00,VWS V14.01,2013-05-11 19:56:00,
2013-05-11 14:57:00,51.8,18.0,30.32,NE,53,1.0,3.0,26,0.00,,---,0.00,VWS V14.01,2013-05-11 19:57:00,
2013-05-11 14:59:00,52.0,18.2,30.32,ESE,120,7.0,7.0,26,0.00,,---,0.00,VWS V14.01,2013-05-11 19:59:00,
2013-05-11 15:00:00,52.1,18.3,30.32,SE,146,4.0,7.0,26,0.00,,---,0.00,VWS V14.01,2013-05-11 20:00:00,
2013-05-11 15:01:00,52.3,18.5,30.32,SSE,167,4.0,7.0,26,0.00,,---,0.00,VWS V14.01,2013-05-11 20:01:00,
2013-05-11 15:03:00,52.4,17.6,30.31,SW,218,2.0,7.0,25,0.00,,---,0.00,VWS V14.01,2013-05-11 20:03:00,
2013-05-11 15:04:00,52.5,17.7,30.32,SW,218,0.0,7.0,25,0.00,,---,0.00,VWS V14.01,2013-05-11 20:04:00,
2013-05-11 15:05:00,52.5,17.7,30.32,SSW,209,2.0,7.0,25,0.00,,---,0.00,VWS V14.01,2013-05-11 20:05:00,
2013-05-11 15:06:00,52.6,18.7,30.32,WSW,239,3.0,7.0,26,0.00,,---,0.00,VWS V14.01,2013-05-11 20:06:00,
2013-05-11 15:08:00,52.8,18.0,30.32,South,184,4.0,4.0,25,0.00,,---,0.00,VWS V14.01,2013-05-11 20:08:00,
2013-05-11 15:09:00,52.9,18.0,30.32,SW,217,6.0,7.0,25,0.00,,---,0.00,VWS V14.01,2013-05-11 20:09:00,
2013-05-11 15:10:00,52.9,17.1,30.32,West,263,3.0,7.0,24,0.00,,---,0.00,VWS V14.01,2013-05-11 20:10:00,
2013-05-11 15:11:00,52.8,17.0,30.32,West,270,3.0,7.0,24,0.00,,---,0.00,VWS V14.01,2013-05-11 20:11:00,
2013-05-11 15:13:00,52.5,15.8,30.32,West,270,0.0,7.0,23,0.00,,---,0.00,VWS V14.01,2013-05-11 20:13:00,
2013-05-11 15:14:00,52.4,15.7,30.31,West,270,0.0,7.0,23,0.00,,---,0.00,VWS V14.01,2013-05-11 20:14:00,
2013-05-11 15:15:00,52.5,16.8,30.31,WSW,244,5.0,7.0,24,0.00,,---,0.00,VWS V14.01,2013-05-11 20:15:00,
2013-05-11 15:16:00,52.8,18.0,30.31,SW,231,4.0,8.0,25,0.00,,---,0.00,VWS V14.01,2013-05-11 20:16:00,
2013-05-11 15:18:00,53.0,17.2,30.31,SSW,201,0.0,8.0,24,0.00,,---,0.00,VWS V14.01,2013-05-11 20:18:00,
2013-05-11 15:19:00,53.1,17.3,30.31,SSW,201,1.0,8.0,24,0.00,,---,0.00,VWS V14.01,2013-05-11 20:19:00,
2013-05-11 15:20:00,53.1,16.3,30.31,SSW,200,2.0,8.0,23,0.00,,---,0.00,VWS V14.01,2013-05-11 20:20:00,
2013-05-11 15:21:00,53.0,17.2,30.31,SSW,192,0.0,8.0,24,0.00,,---,0.00,VWS V14.01,2013-05-11 20:21:00,
2013-05-11 15:23:00,52.9,17.1,30.31,SSW,192,0.0,1.0,24,0.00,,---,0.00,VWS V14.01,2013-05-11 20:23:00,
2013-05-11 15:24:00,52.9,17.1,30.31,NW,308,2.0,3.0,24,0.00,,---,0.00,VWS V14.01,2013-05-11 20:24:00,
2013-05-11 15:25:00,53.1,18.2,30.31,NW,308,0.0,3.0,25,0.00,,---,0.00,VWS V14.01,2013-05-11 20:25:00,
2013-05-11 15:26:00,53.2,17.4,30.31,NW,308,1.0,3.0,24,0.00,,---,0.00,VWS V14.01,2013-05-11 20:26:00,
2013-05-11 15:28:00,53.5,17.6,30.31,NE,46,3.0,4.0,24,0.00,,---,0.00,VWS V14.01,2013-05-11 20:28:00,
2013-05-11 15:29:00,53.5,17.6,30.31,NE,49,4.0,4.0,24,0.00,,---,0.00,VWS V14.01,2013-05-11 20:29:00,
2013-05-11 15:30:00,53.4,16.5,30.31,NE,51,4.0,4.0,23,0.00,,---,0.00,VWS V14.01,2013-05-11 20:30:00,
2013-05-11 15:31:00,53.4,17.5,30.31,NE,51,0.0,4.0,24,0.00,,---,0.00,VWS V14.01,2013-05-11 20:31:00,
2013-05-11 15:33:00,53.5,17.6,30.30,East,88,5.0,5.0,24,0.00,,---,0.00,VWS V14.01,2013-05-11 20:33:00,
2013-05-11 15:34:00,53.6,17.7,30.30,ESE,113,5.0,5.0,24,0.00,,---,0.00,VWS V14.01,2013-05-11 20:34:00,
2013-05-11 15:35:00,53.6,16.7,30.30,SE,128,3.0,7.0,23,0.00,,---,0.00,VWS V14.01,2013-05-11 20:35:00,
2013-05-11 15:37:00,53.6,16.7,30.30,ESE,104,1.0,7.0,23,0.00,,---,0.00,VWS V14.01,2013-05-11 20:37:00,
2013-05-11 15:38:00,53.6,16.7,30.30,South,181,3.0,4.0,23,0.00,,---,0.00,VWS V14.01,2013-05-11 20:38:00,
2013-05-11 15:39:00,53.6,16.7,30.30,South,171,3.0,4.0,23,0.00,,---,0.00,VWS V14.01,2013-05-11 20:39:00,
2013-05-11 15:40:00,53.7,16.8,30.30,South,171,1.0,4.0,23,0.00,,---,0.00,VWS V14.01,2013-05-11 20:40:00,
2013-05-11 15:42:00,53.8,16.9,30.30,South,171,0.0,4.0,23,0.00,,---,0.00,VWS V14.01,2013-05-11 20:42:00,
2013-05-11 15:43:00,53.9,17.0,30.30,SSE,167,3.0,5.0,23,0.00,,---,0.00,VWS V14.01,2013-05-11 20:43:00,
2013-05-11 15:44:00,54.0,17.1,30.30,SSE,167,0.0,5.0,23,0.00,,---,0.00,VWS V14.01,2013-05-11 20:44:00,
2013-05-11 15:46:00,54.1,16.1,30.30,SSE,167,3.0,5.0,22,0.00,,---,0.00,VWS V14.01,2013-05-11 20:46:00,
2013-05-11 15:47:00,54.1,16.1,30.30,SSE,167,3.0,5.0,22,0.00,,---,0.00,VWS V14.01,2013-05-11 20:47:00,
2013-05-11 15:48:00,54.0,16.0,30.30,West,265,6.0,9.0,22,0.00,,---,0.00,VWS V14.01,2013-05-11 20:48:00,
2013-05-11 15:49:00,54.0,16.0,30.30,West,265,0.0,9.0,22,0.00,,---,0.00,VWS V14.01,2013-05-11 20:49:00,
2013-05-11 15:51:00,54.1,16.1,30.29,SSE,158,4.0,9.0,22,0.00,,---,0.00,VWS V14.01,2013-05-11 20:51:00,
2013-05-11 15:52:00,54.2,15.1,30.29,SSE,167,5.0,9.0,21,0.00,,---,0.00,VWS V14.01,2013-05-11 20:52:00,
2013-05-11 15:53:00,54.1,16.1,30.29,SSE,161,5.0,6.0,22,0.00,,---,0.00,VWS V14.01,2013-05-11 20:53:00,
2013-05-11 15:54:00,54.0,16.0,30.29,SSE,161,5.0,6.0,22,0.00,,---,0.00,VWS V14.01,2013-05-11 20:54:00,
2013-05-11 15:55:00,54.0,16.0,30.29,SSW,196,6.0,6.0,22,0.00,,---,0.00,VWS V14.01,2013-05-11 20:55:00,
2013-05-11 15:56:00,54.0,16.0,30.29,South,186,3.0,6.0,22,0.00,,---,0.00,VWS V14.01,2013-05-11 20:56:00,
2013-05-11 15:57:00,54.0,17.1,30.29,SSW,211,3.0,6.0,23,0.00,,---,0.00,VWS V14.01,2013-05-11 20:57:00,
2013-05-11 15:59:00,54.2,15.1,30.29,West,260,6.0,7.0,21,0.00,,---,0.00,VWS V14.01,2013-05-11 20:59:00,
2013-05-11 16:00:00,54.1,15.1,30.29,West,260,3.0,7.0,21,0.00,,---,0.00,VWS V14.01,2013-05-11 21:00:00,
2013-05-11 16:01:00,54.1,15.1,30.29,WSW,241,5.0,7.0,21,0.00,,---,0.00,VWS V14.01,2013-05-11 21:01:00,
2013-05-11 16:02:00,54.1,16.1,30.29,WSW,240,3.0,7.0,22,0.00,,---,0.00,VWS V14.01,2013-05-11 21:02:00,
2013-05-11 16:04:00,54.4,16.4,30.29,West,265,2.0,7.0,22,0.00,,---,0.00,VWS V14.01,2013-05-11 21:04:00,
2013-05-11 16:05:00,54.6,16.5,30.29,West,265,2.0,7.0,22,0.00,,---,0.00,VWS V14.01,2013-05-11 21:05:00,
2013-05-11 16:06:00,54.8,15.6,30.29,West,265,1.0,7.0,21,0.00,,---,0.00,VWS V14.01,2013-05-11 21:06:00,
2013-05-11 16:07:00,55.0,16.9,30.29,West,265,2.0,7.0,22,0.00,,---,0.00,VWS V14.01,2013-05-11 21:07:00,
2013-05-11 16:09:00,55.3,16.0,30.29,NNE,24,2.0,5.0,21,0.00,,---,0.00,VWS V14.01,2013-05-11 21:09:00,
2013-05-11 16:10:00,55.3,16.0,30.28,NNE,17,2.0,5.0,21,0.00,,---,0.00,VWS V14.01,2013-05-11 21:10:00,
2013-05-11 16:11:00,55.2,16.0,30.29,NNW,336,0.0,5.0,21,0.00,,---,0.00,VWS V14.01,2013-05-11 21:11:00,
2013-05-11 16:12:00,55.2,14.9,30.28,NNW,336,0.0,5.0,20,0.00,,---,0.00,VWS V14.01,2013-05-11 21:12:00,
2013-05-11 16:14:00,55.1,15.9,30.28,NNW,336,2.0,5.0,21,0.00,,---,0.00,VWS V14.01,2013-05-11 21:14:00,
2013-05-11 16:15:00,55.1,15.9,30.28,East,86,5.0,5.0,21,0.00,,---,0.00,VWS V14.01,2013-05-11 21:15:00,
2013-05-11 16:16:00,55.0,15.8,30.28,East,85,1.0,5.0,21,0.00,,---,0.00,VWS V14.01,2013-05-11 21:16:00,
2013-05-11 16:17:00,55.0,14.7,30.28,East,85,0.0,5.0,20,0.00,,---,0.00,VWS V14.01,2013-05-11 21:17:00,
2013-05-11 16:19:00,54.8,15.6,30.28,NE,54,4.0,6.0,21,0.00,,---,0.00,VWS V14.01,2013-05-11 21:19:00,
2013-05-11 16:20:00,54.8,15.6,30.28,NE,55,3.0,6.0,21,0.00,,---,0.00,VWS V14.01,2013-05-11 21:20:00,
2013-05-11 16:21:00,54.8,15.6,30.27,NE,55,0.0,6.0,21,0.00,,---,0.00,VWS V14.01,2013-05-11 21:21:00,
2013-05-11 16:22:00,54.9,16.8,30.27,NE,55,0.0,6.0,22,0.00,,---,0.00,VWS V14.01,2013-05-11 21:22:00,
2013-05-11 16:24:00,55.1,15.9,30.27,NE,55,0.0,2.0,21,0.00,,---,0.00,VWS V14.01,2013-05-11 21:24:00,
2013-05-11 16:25:00,55.3,16.0,30.27,NE,52,3.0,4.0,21,0.00,,---,0.00,VWS V14.01,2013-05-11 21:25:00,
2013-05-11 16:26:00,55.5,16.2,30.27,SW,231,6.0,6.0,21,0.00,,---,0.00,VWS V14.01,2013-05-11 21:26:00,
2013-05-11 16:27:00,55.6,16.3,30.27,WSW,245,2.0,6.0,21,0.00,,---,0.00,VWS V14.01,2013-05-11 21:27:00,
2013-05-11 16:29:00,55.9,15.4,30.27,SW,234,2.0,6.0,20,0.00,,---,0.00,VWS V14.01,2013-05-11 21:29:00,
2013-05-11 16:30:00,56.1,15.6,30.27,SW,234,1.0,6.0,20,0.00,,---,0.00,VWS V14.01,2013-05-11 21:30:00,
2013-05-11 16:31:00,56.4,15.9,30.27,SE,144,2.0,6.0,20,0.00,,---,0.00,VWS V14.01,2013-05-11 21:31:00,
2013-05-11 16:32:00,56.5,15.9,30.27,SE,144,2.0,6.0,20,0.00,,---,0.00,VWS V14.01,2013-05-11 21:32:00,
2013-05-11 16:34:00,56.6,14.8,30.27,SE,144,3.0,6.0,19,0.00,,---,0.00,VWS V14.01,2013-05-11 21:34:00,
2013-05-11 16:35:00,56.6,14.8,30.27,SSE,158,4.0,6.0,19,0.00,,---,0.00,VWS V14.01,2013-05-11 21:35:00,
2013-05-11 16:36:00,56.4,14.7,30.27,SSE,162,0.0,7.0,19,0.00,,---,0.00,VWS V14.01,2013-05-11 21:36:00,
2013-05-11 16:37:00,56.4,14.7,30.27,SSE,162,6.0,6.0,19,0.00,,---,0.00,VWS V14.01,2013-05-11 21:37:00,
2013-05-11 16:39:00,56.2,15.7,30.27,South,189,4.0,6.0,20,0.00,,---,0.00,VWS V14.01,2013-05-11 21:39:00,
2013-05-11 16:40:00,56.1,14.4,30.27,SSW,194,2.0,6.0,19,0.00,,---,0.00,VWS V14.01,2013-05-11 21:40:00,
2013-05-11 16:41:00,55.7,14.1,30.27,SE,139,7.0,11.0,19,0.00,,---,0.00,VWS V14.01,2013-05-11 21:41:00,
2013-05-11 16:42:00,55.7,15.3,30.27,SSE,167,2.0,11.0,20,0.00,,---,0.00,VWS V14.01,2013-05-11 21:42:00,
2013-05-11 16:44:00,55.5,15.1,30.27,SSE,152,5.0,11.0,20,0.00,,---,0.00,VWS V14.01,2013-05-11 21:44:00,
2013-05-11 16:45:00,55.4,15.0,30.27,SE,135,11.0,11.0,20,0.00,,---,0.00,VWS V14.01,2013-05-11 21:45:00,
2013-05-11 16:46:00,55.1,14.8,30.27,SE,137,5.0,11.0,20,0.00,,---,0.00,VWS V14.01,2013-05-11 21:46:00,
2013-05-11 16:47:00,55.0,14.7,30.27,SE,125,2.0,11.0,20,0.00,,---,0.00,VWS V14.01,2013-05-11 21:47:00,
2013-05-11 16:49:00,55.0,14.7,30.26,East,88,6.0,11.0,20,0.00,,---,0.00,VWS V14.01,2013-05-11 21:49:00,
2013-05-11 16:50:00,55.0,14.7,30.27,East,98,6.0,11.0,20,0.00,,---,0.00,VWS V14.01,2013-05-11 21:50:00,
2013-05-11 16:51:00,54.9,14.6,30.26,SE,124,6.0,11.0,20,0.00,,---,0.00,VWS V14.01,2013-05-11 21:51:00,
2013-05-11 16:52:00,54.8,13.4,30.26,ESE,122,2.0,7.0,19,0.00,,---,0.00,VWS V14.01,2013-05-11 21:52:00,
2013-05-11 16:54:00,54.8,14.5,30.26,East,80,3.0,7.0,20,0.00,,---,0.00,VWS V14.01,2013-05-11 21:54:00,
2013-05-11 16:55:00,54.8,14.5,30.26,East,101,6.0,7.0,20,0.00,,---,0.00,VWS V14.01,2013-05-11 21:55:00,
2013-05-11 16:56:00,54.8,14.5,30.26,ESE,108,4.0,7.0,20,0.00,,---,0.00,VWS V14.01,2013-05-11 21:56:00,
2013-05-11 16:57:00,54.9,15.7,30.26,ESE,115,4.0,7.0,21,0.00,,---,0.00,VWS V14.01,2013-05-11 21:57:00,
2013-05-11 16:59:00,55.0,14.7,30.26,ESE,115,2.0,7.0,20,0.00,,---,0.00,VWS V14.01,2013-05-11 21:59:00,
2013-05-11 17:00:00,55.1,14.8,30.26,ESE,120,4.0,7.0,20,0.00,,---,0.00,VWS V14.01,2013-05-11 22:00:00,
2013-05-11 17:02:00,55.4,15.0,30.26,ESE,120,4.0,7.0,20,0.00,,---,0.00,VWS V14.01,2013-05-11 22:02:00,
2013-05-11 17:04:00,55.4,13.9,30.26,SE,126,4.0,7.0,19,0.00,,---,0.00,VWS V14.01,2013-05-11 22:04:00,
2013-05-11 17:05:00,55.4,13.9,30.26,SE,131,3.0,7.0,19,0.00,,---,0.00,VWS V14.01,2013-05-11 22:05:00,
2013-05-11 17:07:00,55.4,15.0,30.26,SE,131,1.0,7.0,20,0.00,,---,0.00,VWS V14.01,2013-05-11 22:07:00,
2013-05-11 17:08:00,55.4,15.0,30.26,SE,128,2.0,3.0,20,0.00,,---,0.00,VWS V14.01,2013-05-11 22:08:00,
2013-05-11 17:09:00,55.5,15.1,30.26,ESE,118,1.0,3.0,20,0.00,,---,0.00,VWS V14.01,2013-05-11 22:09:00,
2013-05-11 17:10:00,55.5,13.9,30.26,ESE,118,3.0,3.0,19,0.00,,---,0.00,VWS V14.01,2013-05-11 22:10:00,
2013-05-11 17:12:00,55.5,13.9,30.26,ESE,118,0.0,3.0,19,0.00,,---,0.00,VWS V14.01,2013-05-11 22:12:00,
2013-05-11 17:13:00,55.5,13.9,30.26,ESE,118,2.0,3.0,19,0.00,,---,0.00,VWS V14.01,2013-05-11 22:13:00,
2013-05-11 17:14:00,55.6,15.2,30.26,ESE,118,2.0,4.0,20,0.00,,---,0.00,VWS V14.01,2013-05-11 22:14:00,
2013-05-11 17:15:00,55.6,14.0,30.26,ESE,118,2.0,4.0,19,0.00,,---,0.00,VWS V14.01,2013-05-11 22:15:00,
2013-05-11 17:16:00,55.6,14.0,30.26,ESE,118,3.0,4.0,19,0.00,,---,0.00,VWS V14.01,2013-05-11 22:16:00,
2013-05-11 17:17:00,55.6,14.0,30.26,SSE,168,2.0,5.0,19,0.00,,---,0.00,VWS V14.01,2013-05-11 22:17:00,
2013-05-11 17:18:00,55.6,14.0,30.26,South,173,3.0,5.0,19,0.00,,---,0.00,VWS V14.01,2013-05-11 22:18:00,
2013-05-11 17:19:00,55.6,14.0,30.26,SE,146,4.0,5.0,19,0.00,,---,0.00,VWS V14.01,2013-05-11 22:19:00,
2013-05-11 17:20:00,55.6,14.0,30.26,SE,144,5.0,5.0,19,0.00,,---,0.00,VWS V14.01,2013-05-11 22:20:00,
2013-05-11 17:21:00,55.7,14.1,30.26,SE,144,3.0,5.0,19,0.00,,---,0.00,VWS V14.01,2013-05-11 22:21:00,
2013-05-11 17:22:00,55.7,14.1,30.26,SE,130,4.0,5.0,19,0.00,,---,0.00,VWS V14.01,2013-05-11 22:22:00,
2013-05-11 17:23:00,55.6,14.0,30.26,SE,135,5.0,7.0,19,0.00,,---,0.00,VWS V14.01,2013-05-11 22:23:00,
2013-05-11 17:24:00,55.5,13.9,30.25,SE,144,5.0,8.0,19,0.00,,---,0.00,VWS V14.01,2013-05-11 22:24:00,
2013-05-11 17:25:00,55.5,13.9,30.26,SE,146,3.0,8.0,19,0.00,,---,0.00,VWS V14.01,2013-05-11 22:25:00,
2013-05-11 17:26:00,55.5,13.9,30.26,SSE,150,3.0,8.0,19,0.00,,---,0.00,VWS V14.01,2013-05-11 22:26:00,
2013-05-11 17:27:00,55.6,14.0,30.26,SSE,151,1.0,8.0,19,0.00,,---,0.00,VWS V14.01,2013-05-11 22:27:00,
2013-05-11 17:28:00,55.7,14.1,30.26,SSE,151,1.0,8.0,19,0.00,,---,0.00,VWS V14.01,2013-05-11 22:28:00,
2013-05-11 17:29:00,55.9,14.3,30.26,SSE,151,0.0,8.0,19,0.00,,---,0.00,VWS V14.01,2013-05-11 22:29:00,
2013-05-11 17:30:00,56.0,14.3,30.26,SW,219,0.0,8.0,19,0.00,,---,0.00,VWS V14.01,2013-05-11 22:30:00,
2013-05-11 17:31:00,56.0,14.3,30.26,SW,219,0.0,8.0,19,0.00,,---,0.00,VWS V14.01,2013-05-11 22:31:00,
2013-05-11 17:32:00,56.2,13.3,30.26,SW,219,2.0,8.0,18,0.00,,---,0.00,VWS V14.01,2013-05-11 22:32:00,
2013-05-11 17:33:00,56.4,14.7,30.26,SW,219,2.0,8.0,19,0.00,,---,0.00,VWS V14.01,2013-05-11 22:33:00,
2013-05-11 17:34:00,56.5,14.8,30.26,SW,219,0.0,8.0,19,0.00,,---,0.00,VWS V14.01,2013-05-11 22:34:00,
2013-05-11 17:35:00,56.7,13.7,30.25,SW,219,0.0,8.0,18,0.00,,---,0.00,VWS V14.01,2013-05-11 22:35:00,
2013-05-11 17:36:00,56.8,13.8,30.25,SW,219,0.0,8.0,18,0.00,,---,0.00,VWS V14.01,2013-05-11 22:36:00,
2013-05-11 17:37:00,56.9,13.9,30.25,SW,219,0.0,8.0,18,0.00,,---,0.00,VWS V14.01,2013-05-11 22:37:00,
2013-05-11 17:38:00,57.1,14.0,30.25,SW,219,0.0,0.0,18,0.00,,---,0.00,VWS V14.01,2013-05-11 22:38:00,
2013-05-11 17:39:00,57.1,14.0,30.25,South,190,1.0,3.0,18,0.00,,---,0.00,VWS V14.01,2013-05-11 22:39:00,
2013-05-11 17:41:00,57.1,14.0,30.25,South,190,1.0,3.0,18,0.00,,---,0.00,VWS V14.01,2013-05-11 22:41:00,
2013-05-11 17:42:00,57.1,14.0,30.25,South,190,4.0,4.0,18,0.00,,---,0.00,VWS V14.01,2013-05-11 22:42:00,
2013-05-11 17:43:00,57.1,12.7,30.25,South,190,2.0,4.0,17,0.00,,---,0.00,VWS V14.01,2013-05-11 22:43:00,
2013-05-11 17:45:00,57.1,14.0,30.25,SW,232,3.0,5.0,18,0.00,,---,0.00,VWS V14.01,2013-05-11 22:45:00,
2013-05-11 17:46:00,57.1,14.0,30.25,SW,232,1.0,5.0,18,0.00,,---,0.00,VWS V14.01,2013-05-11 22:46:00,
2013-05-11 17:47:00,57.1,14.0,30.25,SW,232,3.0,5.0,18,0.00,,---,0.00,VWS V14.01,2013-05-11 22:47:00,
2013-05-11 17:48:00,57.1,14.0,30.25,WSW,248,2.0,6.0,18,0.00,,---,0.00,VWS V14.01,2013-05-11 22:48:00,
2013-05-11 17:50:00,57.1,14.0,30.25,WSW,248,0.0,6.0,18,0.00,,---,0.00,VWS V14.01,2013-05-11 22:50:00,
2013-05-11 17:51:00,57.1,14.0,30.25,WSW,248,0.0,6.0,18,0.00,,---,0.00,VWS V14.01,2013-05-11 22:51:00,
2013-05-11 17:52:00,57.1,14.0,30.25,WSW,248,0.0,6.0,18,0.00,,---,0.00,VWS V14.01,2013-05-11 22:52:00,
2013-05-11 17:53:00,57.1,14.0,30.25,WSW,248,1.0,3.0,18,0.00,,---,0.00,VWS V14.01,2013-05-11 22:53:00,
2013-05-11 17:55:00,57.1,14.0,30.25,WSW,248,2.0,3.0,18,0.00,,---,0.00,VWS V14.01,2013-05-11 22:55:00,
2013-05-11 17:56:00,57.1,12.7,30.25,WSW,248,0.0,3.0,17,0.00,,---,0.00,VWS V14.01,2013-05-11 22:56:00,
2013-05-11 17:57:00,57.1,12.7,30.25,WSW,248,0.0,3.0,17,0.00,,---,0.00,VWS V14.01,2013-05-11 22:57:00,
2013-05-11 17:58:00,57.3,14.2,30.24,WSW,248,0.0,3.0,18,0.00,,---,0.00,VWS V14.01,2013-05-11 22:58:00,
2013-05-11 18:00:00,57.4,13.0,30.24,WSW,248,0.0,3.0,17,0.00,,---,0.00,VWS V14.01,2013-05-11 23:00:00,
2013-05-11 18:01:00,57.5,13.1,30.24,SSW,209,3.0,3.0,17,0.00,,---,0.00,VWS V14.01,2013-05-11 23:01:00,
2013-05-11 18:02:00,57.5,13.1,30.24,SSW,209,2.0,4.0,17,0.00,,---,0.00,VWS V14.01,2013-05-11 23:02:00,
2013-05-11 18:03:00,57.5,13.1,30.24,SSW,209,0.0,4.0,17,0.00,,---,0.00,VWS V14.01,2013-05-11 23:03:00,
2013-05-11 18:05:00,57.5,13.1,30.24,SSW,209,2.0,4.0,17,0.00,,---,0.00,VWS V14.01,2013-05-11 23:05:00,
2013-05-11 18:06:00,57.5,14.4,30.24,SSW,209,0.0,4.0,18,0.00,,---,0.00,VWS V14.01,2013-05-11 23:06:00,
2013-05-11 18:07:00,57.4,14.3,30.24,SE,125,1.0,4.0,18,0.00,,---,0.00,VWS V14.01,2013-05-11 23:07:00,
2013-05-11 18:08:00,57.3,12.9,30.24,SE,125,1.0,3.0,17,0.00,,---,0.00,VWS V14.01,2013-05-11 23:08:00,
2013-05-11 18:10:00,57.3,12.9,30.24,SE,125,0.0,4.0,17,0.00,,---,0.00,VWS V14.01,2013-05-11 23:10:00,
2013-05-11 18:11:00,57.3,12.9,30.24,SE,125,3.0,4.0,17,0.00,,---,0.00,VWS V14.01,2013-05-11 23:11:00,
2013-05-11 18:12:00,57.2,14.1,30.24,East,100,2.0,4.0,18,0.00,,---,0.00,VWS V14.01,2013-05-11 23:12:00,
2013-05-11 18:13:00,57.1,14.0,30.24,East,97,3.0,6.0,18,0.00,,---,0.00,VWS V14.01,2013-05-11 23:13:00,
2013-05-11 18:15:00,57.0,13.9,30.24,East,101,5.0,6.0,18,0.00,,---,0.00,VWS V14.01,2013-05-11 23:15:00,
2013-05-11 18:16:00,56.8,12.5,30.24,East,101,1.0,6.0,17,0.00,,---,0.00,VWS V14.01,2013-05-11 23:16:00,
2013-05-11 18:17:00,56.7,12.4,30.24,East,101,1.0,6.0,17,0.00,,---,0.00,VWS V14.01,2013-05-11 23:17:00,
2013-05-11 18:18:00,56.6,13.6,30.24,East,92,3.0,7.0,18,0.00,,---,0.00,VWS V14.01,2013-05-11 23:18:00,
2013-05-11 18:20:00,56.6,13.6,30.24,ESE,108,4.0,7.0,18,0.00,,---,0.00,VWS V14.01,2013-05-11 23:20:00,
2013-05-11 18:21:00,56.6,13.6,30.24,SSE,157,4.0,7.0,18,0.00,,---,0.00,VWS V14.01,2013-05-11 23:21:00,
2013-05-11 18:22:00,56.6,13.6,30.23,SSE,154,5.0,7.0,18,0.00,,---,0.00,VWS V14.01,2013-05-11 23:22:00,
2013-05-11 18:24:00,56.5,12.2,30.24,SE,135,5.0,5.0,17,0.00,,---,0.00,VWS V14.01,2013-05-11 23:24:00,
2013-05-11 18:25:00,56.4,12.1,30.24,SE,134,2.0,5.0,17,0.00,,---,0.00,VWS V14.01,2013-05-11 23:25:00,
2013-05-11 18:26:00,56.3,12.1,30.23,SE,127,4.0,5.0,17,0.00,,---,0.00,VWS V14.01,2013-05-11 23:26:00,
2013-05-11 18:27:00,56.2,13.3,30.23,SE,126,6.0,6.0,18,0.00,,---,0.00,VWS V14.01,2013-05-11 23:27:00,
2013-05-11 18:29:00,56.1,13.2,30.23,SE,126,2.0,7.0,18,0.00,,---,0.00,VWS V14.01,2013-05-11 23:29:00,
2013-05-11 18:30:00,56.0,13.1,30.23,SE,125,2.0,7.0,18,0.00,,---,0.00,VWS V14.01,2013-05-11 23:30:00,
2013-05-11 18:31:00,56.0,13.1,30.23,SE,125,4.0,7.0,18,0.00,,---,0.00,VWS V14.01,2013-05-11 23:31:00,
2013-05-11 18:32:00,56.0,13.1,30.23,ESE,123,4.0,7.0,18,0.00,,---,0.00,VWS V14.01,2013-05-11 23:32:00,
2013-05-11 18:34:00,56.0,13.1,30.23,SSE,154,5.0,7.0,18,0.00,,---,0.00,VWS V14.01,2013-05-11 23:34:00,
2013-05-11 18:35:00,55.9,13.0,30.23,SSE,147,7.0,7.0,18,0.00,,---,0.00,VWS V14.01,2013-05-11 23:35:00,
2013-05-11 18:36:00,55.9,13.0,30.23,SE,145,6.0,7.0,18,0.00,,---,0.00,VWS V14.01,2013-05-11 23:36:00,
2013-05-11 18:37:00,55.9,13.0,30.23,SSE,150,7.0,7.0,18,0.00,,---,0.00,VWS V14.01,2013-05-11 23:37:00,
2013-05-11 18:39:00,56.0,14.3,30.23,SE,146,5.0,5.0,19,0.00,,---,0.00,VWS V14.01,2013-05-11 23:39:00,
2013-05-11 18:40:00,56.1,14.4,30.23,SSE,158,2.0,6.0,19,0.00,,---,0.00,VWS V14.01,2013-05-11 23:40:00,
2013-05-11 18:41:00,56.2,14.5,30.23,SSE,155,4.0,6.0,19,0.00,,---,0.00,VWS V14.01,2013-05-11 23:41:00,
2013-05-11 18:42:00,56.2,13.3,30.23,SSE,153,3.0,6.0,18,0.00,,---,0.00,VWS V14.01,2013-05-11 23:42:00,
2013-05-11 18:44:00,56.2,12.0,30.23,SSE,153,2.0,6.0,17,0.00,,---,0.00,VWS V14.01,2013-05-11 23:44:00,
2013-05-11 18:45:00,56.2,13.3,30.23,SSE,153,3.0,6.0,18,0.00,,---,0.00,VWS V14.01,2013-05-11 23:45:00,
2013-05-11 18:46:00,56.3,12.1,30.23,SSE,153,2.0,6.0,17,0.00,,---,0.00,VWS V14.01,2013-05-11 23:46:00,
2013-05-11 18:47:00,56.3,13.4,30.23,SSE,153,0.0,6.0,18,0.00,,---,0.00,VWS V14.01,2013-05-11 23:47:00,
2013-05-11 18:49:00,56.5,13.5,30.22,SSE,153,0.0,6.0,18,0.00,,---,0.00,VWS V14.01,2013-05-11 23:49:00,
2013-05-11 18:50:00,56.7,13.7,30.22,SSE,153,3.0,6.0,18,0.00,,---,0.00,VWS V14.01,2013-05-11 23:50:00,
2013-05-11 18:51:00,56.8,12.5,30.22,SSE,153,0.0,6.0,17,0.00,,---,0.00,VWS V14.01,2013-05-11 23:51:00,
2013-05-11 18:52:00,57.0,12.6,30.22,SSE,153,3.0,4.0,17,0.00,,---,0.00,VWS V14.01,2013-05-11 23:52:00,
2013-05-11 18:54:00,57.0,12.6,30.22,SSE,161,3.0,5.0,17,0.00,,---,0.00,VWS V14.01,2013-05-11 23:54:00,
2013-05-11 18:55:00,56.9,12.6,30.22,SSE,161,2.0,5.0,17,0.00,,---,0.00,VWS V14.01,2013-05-11 23:55:00,
2013-05-11 18:57:00,56.8,13.8,30.22,SSE,161,0.0,5.0,18,0.00,,---,0.00,VWS V14.01,2013-05-11 23:57:00,
2013-05-11 18:59:00,56.8,12.5,30.22,SSE,161,1.0,5.0,17,0.00,,---,0.00,VWS V14.01,2013-05-11 23:59:00,
2013-05-11 19:00:00,56.7,12.4,30.22,SSE,161,0.0,5.0,17,0.00,,---,0.00,VWS V14.01,2013-05-12 00:00:00,
2013-05-11 19:02:00,56.7,13.7,30.22,SSE,161,3.0,5.0,18,0.00,,---,0.00,VWS V14.01,2013-05-12 00:02:00,
2013-05-11 19:03:00,56.6,12.3,30.22,SSE,161,2.0,5.0,17,0.00,,---,0.00,VWS V14.01,2013-05-12 00:03:00,
2013-05-11 19:04:00,56.5,12.2,30.22,SSE,161,0.0,5.0,17,0.00,,---,0.00,VWS V14.01,2013-05-12 00:04:00,
2013-05-11 19:05:00,56.5,10.9,30.22,SSE,161,0.0,5.0,16,0.00,,---,0.00,VWS V14.01,2013-05-12 00:05:00,
2013-05-11 19:07:00,56.3,12.1,30.21,SSE,161,0.0,5.0,17,0.00,,---,0.00,VWS V14.01,2013-05-12 00:07:00,
2013-05-11 19:08:00,56.3,12.1,30.22,SSE,161,0.0,1.0,17,0.00,,---,0.00,VWS V14.01,2013-05-12 00:08:00,
2013-05-11 19:09:00,56.2,12.0,30.21,SSE,161,0.0,1.0,17,0.00,,---,0.00,VWS V14.01,2013-05-12 00:09:00,
2013-05-11 19:11:00,56.2,12.0,30.21,SSE,161,0.0,1.0,17,0.00,,---,0.00,VWS V14.01,2013-05-12 00:11:00,
2013-05-11 19:12:00,56.2,12.0,30.21,SSE,161,0.0,1.0,17,0.00,,---,0.00,VWS V14.01,2013-05-12 00:12:00,
2013-05-11 19:13:00,56.2,12.0,30.21,SSE,161,0.0,1.0,17,0.00,,---,0.00,VWS V14.01,2013-05-12 00:13:00,
2013-05-11 19:14:00,56.3,12.1,30.21,SSE,161,1.0,1.0,17,0.00,,---,0.00,VWS V14.01,2013-05-12 00:14:00,
2013-05-11 19:16:00,56.3,12.1,30.22,SSE,161,0.0,2.0,17,0.00,,---,0.00,VWS V14.01,2013-05-12 00:16:00,
2013-05-11 19:17:00,56.3,13.4,30.22,SSE,161,0.0,2.0,18,0.00,,---,0.00,VWS V14.01,2013-05-12 00:17:00,
2013-05-11 19:18:00,56.4,12.1,30.22,SSE,161,0.0,2.0,17,0.00,,---,0.00,VWS V14.01,2013-05-12 00:18:00,
2013-05-11 19:20:00,56.3,12.1,30.22,SSE,161,0.0,2.0,17,0.00,,---,0.00,VWS V14.01,2013-05-12 00:20:00,
2013-05-11 19:21:00,56.3,13.4,30.22,SSE,159,3.0,4.0,18,0.00,,---,0.00,VWS V14.01,2013-05-12 00:21:00,
2013-05-11 19:22:00,56.1,11.9,30.22,SSE,159,2.0,2.0,17,0.00,,---,0.00,VWS V14.01,2013-05-12 00:22:00,
2013-05-11 19:23:00,56.1,11.9,30.22,SSE,159,2.0,2.0,17,0.00,,---,0.00,VWS V14.01,2013-05-12 00:23:00,
2013-05-11 19:25:00,55.8,12.9,30.21,SSE,155,3.0,4.0,18,0.00,,---,0.00,VWS V14.01,2013-05-12 00:25:00,
2013-05-11 19:26:00,55.7,12.9,30.21,SSE,155,1.0,4.0,18,0.00,,---,0.00,VWS V14.01,2013-05-12 00:26:00,
2013-05-11 19:28:00,55.5,12.7,30.22,ESE,123,5.0,5.0,18,0.00,,---,0.00,VWS V14.01,2013-05-12 00:28:00,
2013-05-11 19:30:00,55.3,12.5,30.22,ESE,119,2.0,5.0,18,0.00,,---,0.00,VWS V14.01,2013-05-12 00:30:00,
2013-05-11 19:31:00,55.3,13.8,30.22,ESE,119,3.0,5.0,19,0.00,,---,0.00,VWS V14.01,2013-05-12 00:31:00,
2013-05-11 19:33:00,55.3,12.5,30.22,ESE,119,0.0,5.0,18,0.00,,---,0.00,VWS V14.01,2013-05-12 00:33:00,
2013-05-11 19:35:00,55.3,12.5,30.21,ESE,119,2.0,5.0,18,0.00,,---,0.00,VWS V14.01,2013-05-12 00:35:00,
2013-05-11 19:36:00,55.3,12.5,30.21,ESE,119,1.0,5.0,18,0.00,,---,0.00,VWS V14.01,2013-05-12 00:36:00,
2013-05-11 19:38:00,55.3,12.5,30.21,ESE,119,1.0,1.0,18,0.00,,---,0.00,VWS V14.01,2013-05-12 00:38:00,
2013-05-11 19:40:00,55.3,12.5,30.21,ESE,119,3.0,3.0,18,0.00,,---,0.00,VWS V14.01,2013-05-12 00:40:00,
2013-05-11 19:41:00,55.3,12.5,30.21,ESE,118,5.0,5.0,18,0.00,,---,0.00,VWS V14.01,2013-05-12 00:41:00,
2013-05-11 19:43:00,55.3,12.5,30.21,ESE,102,2.0,5.0,18,0.00,,---,0.00,VWS V14.01,2013-05-12 00:43:00,
2013-05-11 19:45:00,55.3,13.8,30.20,ESE,102,3.0,5.0,19,0.00,,---,0.00,VWS V14.01,2013-05-12 00:45:00,
2013-05-11 19:46:00,55.3,12.5,30.20,ESE,102,1.0,5.0,18,0.00,,---,0.00,VWS V14.01,2013-05-12 00:46:00,
2013-05-11 19:48:00,55.3,12.5,30.20,ESE,102,1.0,5.0,18,0.00,,---,0.00,VWS V14.01,2013-05-12 00:48:00,
2013-05-11 19:50:00,55.4,13.9,30.20,ESE,102,2.0,5.0,19,0.00,,---,0.00,VWS V14.01,2013-05-12 00:50:00,
2013-05-11 19:51:00,55.4,13.9,30.20,ESE,102,3.0,5.0,19,0.00,,---,0.00,VWS V14.01,2013-05-12 00:51:00,
2013-05-11 19:53:00,55.5,12.7,30.20,ESE,102,4.0,6.0,18,0.00,,---,0.00,VWS V14.01,2013-05-12 00:53:00,
2013-05-11 19:55:00,55.4,12.6,30.20,ESE,102,2.0,6.0,18,0.00,,---,0.00,VWS V14.01,2013-05-12 00:55:00,
2013-05-11 19:56:00,55.4,12.6,30.20,ESE,102,2.0,6.0,18,0.00,,---,0.00,VWS V14.01,2013-05-12 00:56:00,
2013-05-11 19:58:00,55.4,13.9,30.20,East,98,3.0,7.0,19,0.00,,---,0.00,VWS V14.01,2013-05-12 00:58:00,
2013-05-11 20:00:00,55.4,12.6,30.20,ESE,106,3.0,7.0,18,0.00,,---,0.00,VWS V14.01,2013-05-12 01:00:00,
2013-05-11 20:01:00,55.3,12.5,30.20,ESE,108,3.0,7.0,18,0.00,,---,0.00,VWS V14.01,2013-05-12 01:01:00,
2013-05-11 20:03:00,55.3,12.5,30.20,ESE,111,0.0,7.0,18,0.00,,---,0.00,VWS V14.01,2013-05-12 01:03:00,
2013-05-11 20:04:00,55.3,12.5,30.20,ESE,111,0.0,7.0,18,0.00,,---,0.00,VWS V14.01,2013-05-12 01:04:00,
2013-05-11 20:05:00,55.4,12.6,30.20,ESE,111,1.0,7.0,18,0.00,,---,0.00,VWS V14.01,2013-05-12 01:05:00,
2013-05-11 20:06:00,55.4,12.6,30.20,ESE,111,0.0,7.0,18,0.00,,---,0.00,VWS V14.01,2013-05-12 01:06:00,
2013-05-11 20:08:00,55.5,12.7,30.20,ESE,117,5.0,5.0,18,0.00,,---,0.00,VWS V14.01,2013-05-12 01:08:00,
2013-05-11 20:09:00,55.5,12.7,30.20,ESE,117,3.0,5.0,18,0.00,,---,0.00,VWS V14.01,2013-05-12 01:09:00,
2013-05-11 20:10:00,55.4,12.6,30.20,SE,130,5.0,6.0,18,0.00,,---,0.00,VWS V14.01,2013-05-12 01:10:00,
2013-05-11 20:11:00,55.4,11.3,30.20,SE,130,3.0,6.0,17,0.00,,---,0.00,VWS V14.01,2013-05-12 01:11:00,
2013-05-11 20:13:00,55.3,11.2,30.20,SE,127,4.0,6.0,17,0.00,,---,0.00,VWS V14.01,2013-05-12 01:13:00,
2013-05-11 20:14:00,55.3,11.2,30.20,SE,127,4.0,6.0,17,0.00,,---,0.00,VWS V14.01,2013-05-12 01:14:00,
2013-05-11 20:16:00,55.2,11.2,30.20,SE,127,1.0,6.0,17,0.00,,---,0.00,VWS V14.01,2013-05-12 01:16:00,
2013-05-11 20:19:00,55.1,11.1,30.20,SE,127,1.0,6.0,17,0.00,,---,0.00,VWS V14.01,2013-05-12 01:19:00,
2013-05-11 20:21:00,55.1,11.1,30.20,SE,127,2.0,6.0,17,0.00,,---,0.00,VWS V14.01,2013-05-12 01:21:00,
2013-05-11 20:24:00,55.0,12.3,30.19,East,98,5.0,6.0,18,0.00,,---,0.00,VWS V14.01,2013-05-12 01:24:00,
2013-05-11 20:26:00,54.9,12.2,30.19,East,98,2.0,6.0,18,0.00,,---,0.00,VWS V14.01,2013-05-12 01:26:00,
2013-05-11 20:29:00,54.8,12.1,30.19,East,98,3.0,6.0,18,0.00,,---,0.00,VWS V14.01,2013-05-12 01:29:00,
2013-05-11 20:31:00,54.8,12.1,30.19,East,98,1.0,6.0,18,0.00,,---,0.00,VWS V14.01,2013-05-12 01:31:00,
2013-05-11 20:34:00,54.8,12.1,30.19,East,93,2.0,7.0,18,0.00,,---,0.00,VWS V14.01,2013-05-12 01:34:00,
2013-05-11 20:36:00,54.6,12.0,30.19,East,90,5.0,7.0,18,0.00,,---,0.00,VWS V14.01,2013-05-12 01:36:00,
2013-05-11 20:39:00,54.6,12.0,30.19,East,90,0.0,3.0,18,0.00,,---,0.00,VWS V14.01,2013-05-12 01:39:00,
2013-05-11 20:41:00,54.6,12.0,30.19,East,90,3.0,3.0,18,0.00,,---,0.00,VWS V14.01,2013-05-12 01:41:00,
2013-05-11 20:42:00,54.7,12.1,30.19,East,90,1.0,3.0,18,0.00,,---,0.00,VWS V14.01,2013-05-12 01:42:00,
2013-05-11 20:44:00,54.6,12.0,30.19,East,90,3.0,5.0,18,0.00,,---,0.00,VWS V14.01,2013-05-12 01:44:00,
2013-05-11 20:46:00,54.5,10.6,30.19,East,90,2.0,6.0,17,0.00,,---,0.00,VWS V14.01,2013-05-12 01:46:00,
2013-05-11 20:47:00,54.5,10.6,30.19,East,90,3.0,6.0,17,0.00,,---,0.00,VWS V14.01,2013-05-12 01:47:00,
2013-05-11 20:49:00,54.3,11.7,30.19,East,90,1.0,6.0,18,0.00,,---,0.00,VWS V14.01,2013-05-12 01:49:00,
2013-05-11 20:51:00,54.3,11.7,30.19,East,90,2.0,6.0,18,0.00,,---,0.00,VWS V14.01,2013-05-12 01:51:00,
2013-05-11 20:52:00,54.2,11.6,30.19,East,90,2.0,6.0,18,0.00,,---,0.00,VWS V14.01,2013-05-12 01:52:00,
2013-05-11 20:54:00,54.2,11.6,30.19,East,90,1.0,3.0,18,0.00,,---,0.00,VWS V14.01,2013-05-12 01:54:00,
2013-05-11 20:56:00,54.1,11.6,30.19,East,90,1.0,5.0,18,0.00,,---,0.00,VWS V14.01,2013-05-12 01:56:00,
2013-05-11 20:57:00,54.0,11.5,30.19,East,90,2.0,5.0,18,0.00,,---,0.00,VWS V14.01,2013-05-12 01:57:00,
2013-05-11 20:59:00,53.9,12.6,30.19,East,90,1.0,6.0,19,0.00,,---,0.00,VWS V14.01,2013-05-12 01:59:00,
2013-05-11 21:01:00,53.7,12.4,30.19,East,90,5.0,6.0,19,0.00,,---,0.00,VWS V14.01,2013-05-12 02:01:00,
2013-05-11 21:02:00,53.7,12.4,30.19,East,90,3.0,6.0,19,0.00,,---,0.00,VWS V14.01,2013-05-12 02:02:00,
2013-05-11 21:04:00,53.6,13.5,30.19,East,90,2.0,6.0,20,0.00,,---,0.00,VWS V14.01,2013-05-12 02:04:00,
2013-05-11 21:06:00,53.5,13.4,30.19,East,90,2.0,6.0,20,0.00,,---,0.00,VWS V14.01,2013-05-12 02:06:00,
2013-05-11 21:07:00,53.5,13.4,30.19,East,90,2.0,6.0,20,0.00,,---,0.00,VWS V14.01,2013-05-12 02:07:00,
2013-05-11 21:09:00,53.3,13.3,30.19,East,90,2.0,3.0,20,0.00,,---,0.00,VWS V14.01,2013-05-12 02:09:00,
2013-05-11 21:11:00,53.2,13.2,30.19,East,90,0.0,3.0,20,0.00,,---,0.00,VWS V14.01,2013-05-12 02:11:00,
2013-05-11 21:12:00,53.2,13.2,30.19,East,90,2.0,3.0,20,0.00,,---,0.00,VWS V14.01,2013-05-12 02:12:00,
2013-05-11 21:14:00,53.0,13.0,30.19,East,90,0.0,3.0,20,0.00,,---,0.00,VWS V14.01,2013-05-12 02:14:00,
2013-05-11 21:16:00,53.0,13.0,30.19,East,90,0.0,3.0,20,0.00,,---,0.00,VWS V14.01,2013-05-12 02:16:00,
2013-05-11 21:17:00,52.9,14.1,30.19,East,90,3.0,5.0,21,0.00,,---,0.00,VWS V14.01,2013-05-12 02:17:00,
2013-05-11 21:19:00,52.8,14.0,30.19,East,90,1.0,5.0,21,0.00,,---,0.00,VWS V14.01,2013-05-12 02:19:00,
2013-05-11 21:21:00,52.6,13.8,30.19,East,90,1.0,5.0,21,0.00,,---,0.00,VWS V14.01,2013-05-12 02:21:00,
2013-05-11 21:22:00,52.6,13.8,30.19,East,90,1.0,5.0,21,0.00,,---,0.00,VWS V14.01,2013-05-12 02:22:00,
2013-05-11 21:24:00,52.5,14.8,30.19,East,90,0.0,2.0,22,0.00,,---,0.00,VWS V14.01,2013-05-12 02:24:00,
2013-05-11 21:25:00,52.5,14.8,30.19,East,90,0.0,2.0,22,0.00,,---,0.00,VWS V14.01,2013-05-12 02:25:00,
2013-05-11 21:26:00,52.4,14.7,30.19,East,90,0.0,2.0,22,0.00,,---,0.00,VWS V14.01,2013-05-12 02:26:00,
2013-05-11 21:27:00,52.4,13.6,30.19,East,90,0.0,2.0,21,0.00,,---,0.00,VWS V14.01,2013-05-12 02:27:00,
2013-05-11 21:29:00,52.2,14.5,30.19,East,90,1.0,5.0,22,0.00,,---,0.00,VWS V14.01,2013-05-12 02:29:00,
2013-05-11 21:30:00,52.2,14.5,30.19,East,90,3.0,5.0,22,0.00,,---,0.00,VWS V14.01,2013-05-12 02:30:00,
2013-05-11 21:32:00,52.1,14.4,30.19,East,90,2.0,5.0,22,0.00,,---,0.00,VWS V14.01,2013-05-12 02:32:00,
2013-05-11 21:34:00,51.9,14.3,30.19,East,90,0.0,5.0,22,0.00,,---,0.00,VWS V14.01,2013-05-12 02:34:00,
2013-05-11 21:35:00,51.9,14.3,30.19,East,90,0.0,5.0,22,0.00,,---,0.00,VWS V14.01,2013-05-12 02:35:00,
2013-05-11 21:37:00,51.8,15.2,30.19,East,96,2.0,5.0,23,0.00,,---,0.00,VWS V14.01,2013-05-12 02:37:00,
2013-05-11 21:39:00,51.7,15.1,30.19,ESE,117,3.0,7.0,23,0.00,,---,0.00,VWS V14.01,2013-05-12 02:39:00,
2013-05-11 21:40:00,51.7,15.1,30.19,ESE,117,3.0,7.0,23,0.00,,---,0.00,VWS V14.01,2013-05-12 02:40:00,
2013-05-11 21:42:00,51.6,15.0,30.19,ESE,121,2.0,7.0,23,0.00,,---,0.00,VWS V14.01,2013-05-12 02:42:00,
2013-05-11 21:44:00,51.5,14.9,30.19,ESE,123,2.0,7.0,23,0.00,,---,0.00,VWS V14.01,2013-05-12 02:44:00,
2013-05-11 21:45:00,51.5,14.9,30.19,ESE,123,1.0,7.0,23,0.00,,---,0.00,VWS V14.01,2013-05-12 02:45:00,
2013-05-11 21:47:00,51.4,15.8,30.19,SE,126,2.0,7.0,24,0.00,,---,0.00,VWS V14.01,2013-05-12 02:47:00,
2013-05-11 21:48:00,51.3,15.8,30.19,SE,126,1.0,7.0,24,0.00,,---,0.00,VWS V14.01,2013-05-12 02:48:00,
2013-05-11 21:49:00,51.2,15.7,30.19,SE,126,0.0,7.0,24,0.00,,---,0.00,VWS V14.01,2013-05-12 02:49:00,
2013-05-11 21:50:00,51.2,15.7,30.19,SE,126,0.0,7.0,24,0.00,,---,0.00,VWS V14.01,2013-05-12 02:50:00,
2013-05-11 21:52:00,51.1,15.6,30.19,SE,126,2.0,7.0,24,0.00,,---,0.00,VWS V14.01,2013-05-12 02:52:00,
2013-05-11 21:53:00,51.0,15.5,30.19,SE,126,0.0,2.0,24,0.00,,---,0.00,VWS V14.01,2013-05-12 02:53:00,
2013-05-11 21:55:00,50.9,15.4,30.19,SE,126,2.0,2.0,24,0.00,,---,0.00,VWS V14.01,2013-05-12 02:55:00,
2013-05-11 21:57:00,50.8,15.3,30.19,SE,126,1.0,2.0,24,0.00,,---,0.00,VWS V14.01,2013-05-12 02:57:00,
2013-05-11 21:58:00,50.7,15.2,30.19,SE,126,2.0,3.0,24,0.00,,---,0.00,VWS V14.01,2013-05-12 02:58:00,
2013-05-11 22:00:00,50.6,15.2,30.19,SE,126,4.0,5.0,24,0.00,,---,0.00,VWS V14.01,2013-05-12 03:00:00,
2013-05-11 22:02:00,50.4,15.0,30.19,SE,126,0.0,5.0,24,0.00,,---,0.00,VWS V14.01,2013-05-12 03:02:00,
2013-05-11 22:03:00,50.4,15.0,30.20,SE,126,0.0,5.0,24,0.00,,---,0.00,VWS V14.01,2013-05-12 03:03:00,
2013-05-11 22:05:00,50.3,15.8,30.20,SE,126,1.0,5.0,25,0.00,,---,0.00,VWS V14.01,2013-05-12 03:05:00,
2013-05-11 22:07:00,50.1,15.7,30.19,SE,126,0.0,5.0,25,0.00,,---,0.00,VWS V14.01,2013-05-12 03:07:00,
2013-05-11 22:08:00,50.0,15.6,30.20,SE,126,1.0,2.0,25,0.00,,---,0.00,VWS V14.01,2013-05-12 03:08:00,
2013-05-11 22:10:00,49.9,15.5,30.19,SE,126,1.0,2.0,25,0.00,,---,0.00,VWS V14.01,2013-05-12 03:10:00,
2013-05-11 22:12:00,49.7,15.3,30.20,SE,126,0.0,3.0,25,0.00,,---,0.00,VWS V14.01,2013-05-12 03:12:00,
2013-05-11 22:13:00,49.6,15.2,30.19,SE,126,2.0,3.0,25,0.00,,---,0.00,VWS V14.01,2013-05-12 03:13:00,
2013-05-11 22:15:00,49.5,15.1,30.20,SE,126,2.0,3.0,25,0.00,,---,0.00,VWS V14.01,2013-05-12 03:15:00,
2013-05-11 22:17:00,49.4,16.0,30.20,SE,126,1.0,4.0,26,0.00,,---,0.00,VWS V14.01,2013-05-12 03:17:00,
2013-05-11 22:18:00,49.3,15.9,30.20,SE,126,0.0,4.0,26,0.00,,---,0.00,VWS V14.01,2013-05-12 03:18:00,
2013-05-11 22:20:00,49.2,15.8,30.20,SE,126,4.0,5.0,26,0.00,,---,0.00,VWS V14.01,2013-05-12 03:20:00,
2013-05-11 22:22:00,49.1,15.7,30.20,SE,126,1.0,5.0,26,0.00,,---,0.00,VWS V14.01,2013-05-12 03:22:00,
2013-05-11 22:23:00,49.1,15.7,30.20,SE,126,0.0,1.0,26,0.00,,---,0.00,VWS V14.01,2013-05-12 03:23:00,
2013-05-11 22:25:00,49.0,15.6,30.20,SE,126,1.0,3.0,26,0.00,,---,0.00,VWS V14.01,2013-05-12 03:25:00,
2013-05-11 22:27:00,48.9,16.4,30.20,SE,126,1.0,3.0,27,0.00,,---,0.00,VWS V14.01,2013-05-12 03:27:00,
2013-05-11 22:28:00,48.7,16.2,30.20,SE,126,1.0,4.0,27,0.00,,---,0.00,VWS V14.01,2013-05-12 03:28:00,
2013-05-11 22:30:00,48.6,16.1,30.20,SE,126,1.0,4.0,27,0.00,,---,0.00,VWS V14.01,2013-05-12 03:30:00,
2013-05-11 22:32:00,48.3,15.9,30.20,SE,126,1.0,4.0,27,0.00,,---,0.00,VWS V14.01,2013-05-12 03:32:00,
2013-05-11 22:33:00,48.2,15.8,30.20,SE,126,1.0,4.0,27,0.00,,---,0.00,VWS V14.01,2013-05-12 03:33:00,
2013-05-11 22:35:00,48.2,15.8,30.20,SE,126,2.0,4.0,27,0.00,,---,0.00,VWS V14.01,2013-05-12 03:35:00,
2013-05-11 22:37:00,48.0,16.5,30.20,SE,126,2.0,2.0,28,0.00,,---,0.00,VWS V14.01,2013-05-12 03:37:00,
2013-05-11 22:38:00,47.9,16.4,30.20,SE,126,1.0,4.0,28,0.00,,---,0.00,VWS V14.01,2013-05-12 03:38:00,
2013-05-11 22:40:00,47.9,16.4,30.20,SE,126,2.0,4.0,28,0.00,,---,0.00,VWS V14.01,2013-05-12 03:40:00,
2013-05-11 22:42:00,47.7,16.2,30.20,SE,126,1.0,5.0,28,0.00,,---,0.00,VWS V14.01,2013-05-12 03:42:00,
2013-05-11 22:43:00,47.7,16.2,30.20,SE,126,3.0,5.0,28,0.00,,---,0.00,VWS V14.01,2013-05-12 03:43:00,
2013-05-11 22:45:00,47.6,16.1,30.20,SE,126,2.0,5.0,28,0.00,,---,0.00,VWS V14.01,2013-05-12 03:45:00,
2013-05-11 22:47:00,47.4,15.9,30.20,SE,126,0.0,5.0,28,0.00,,---,0.00,VWS V14.01,2013-05-12 03:47:00,
2013-05-11 22:48:00,47.4,16.8,30.20,SE,126,0.0,5.0,29,0.00,,---,0.00,VWS V14.01,2013-05-12 03:48:00,
2013-05-11 22:50:00,47.3,16.7,30.20,SE,126,0.0,5.0,29,0.00,,---,0.00,VWS V14.01,2013-05-12 03:50:00,
2013-05-11 22:52:00,47.2,16.6,30.20,SE,126,0.0,0.0,29,0.00,,---,0.00,VWS V14.01,2013-05-12 03:52:00,
2013-05-11 22:54:00,47.2,16.6,30.20,SE,126,1.0,3.0,29,0.00,,---,0.00,VWS V14.01,2013-05-12 03:54:00,
2013-05-11 22:55:00,47.1,16.5,30.19,SE,126,1.0,3.0,29,0.00,,---,0.00,VWS V14.01,2013-05-12 03:55:00,
2013-05-11 22:57:00,47.1,16.5,30.19,SE,126,0.0,3.0,29,0.00,,---,0.00,VWS V14.01,2013-05-12 03:57:00,
2013-05-11 22:59:00,47.0,17.2,30.19,SE,126,2.0,3.0,30,0.00,,---,0.00,VWS V14.01,2013-05-12 03:59:00,
2013-05-11 23:00:00,47.0,17.2,30.19,SE,126,1.0,3.0,30,0.00,,---,0.00,VWS V14.01,2013-05-12 04:00:00,
2013-05-11 23:01:00,47.0,17.2,30.19,SE,126,2.0,3.0,30,0.00,,---,0.00,VWS V14.01,2013-05-12 04:01:00,
2013-05-11 23:06:00,46.8,17.0,30.19,SE,126,1.0,4.0,30,0.00,,---,0.00,VWS V14.01,2013-05-12 04:06:00,
2013-05-11 23:11:00,46.5,16.8,30.19,SE,126,1.0,3.0,30,0.00,,---,0.00,VWS V14.01,2013-05-12 04:11:00,
2013-05-11 23:16:00,46.3,18.1,30.19,SE,126,3.0,4.0,32,0.00,,---,0.00,VWS V14.01,2013-05-12 04:16:00,
2013-05-11 23:21:00,46.1,20.0,30.19,SE,139,0.0,4.0,35,0.00,,---,0.00,VWS V14.01,2013-05-12 04:21:00,
2013-05-11 23:26:00,46.0,20.6,30.19,SE,140,1.0,4.0,36,0.00,,---,0.00,VWS V14.01,2013-05-12 04:26:00,
2013-05-11 23:31:00,46.0,21.2,30.19,SE,140,2.0,5.0,37,0.00,,---,0.00,VWS V14.01,2013-05-12 04:31:00,
2013-05-11 23:36:00,45.9,21.1,30.18,SSE,151,0.0,5.0,37,0.00,,---,0.00,VWS V14.01,2013-05-12 04:36:00,
2013-05-11 23:37:00,45.9,21.7,30.18,SSE,155,5.0,5.0,38,0.00,,---,0.00,VWS V14.01,2013-05-12 04:37:00,
2013-05-11 23:41:00,45.9,21.7,30.18,SSE,155,5.0,5.0,38,0.00,,---,0.00,VWS V14.01,2013-05-12 04:41:00,
2013-05-11 23:42:00,45.8,21.6,30.18,SSE,155,4.0,5.0,38,0.00,,---,0.00,VWS V14.01,2013-05-12 04:42:00,
2013-05-11 23:46:00,45.8,21.6,30.18,SSE,164,2.0,6.0,38,0.00,,---,0.00,VWS V14.01,2013-05-12 04:46:00,
2013-05-11 23:47:00,45.9,21.7,30.18,SSE,164,1.0,6.0,38,0.00,,---,0.00,VWS V14.01,2013-05-12 04:47:00,
2013-05-11 23:51:00,45.9,21.7,30.18,SSE,155,2.0,7.0,38,0.00,,---,0.00,VWS V14.01,2013-05-12 04:51:00,
2013-05-11 23:52:00,45.8,21.6,30.18,SSE,151,5.0,8.0,38,0.00,,---,0.00,VWS V14.01,2013-05-12 04:52:00,
2013-05-11 23:56:00,45.8,21.0,30.18,SSE,158,4.0,6.0,37,0.00,,---,0.00,VWS V14.01,2013-05-12 04:56:00,
2013-05-11 23:57:00,45.8,20.4,30.18,SSE,155,3.0,6.0,36,0.00,,---,0.00,VWS V14.01,2013-05-12 04:57:00,